ftp/pub/palmer/observations_modified/2019/November/AR191111_AWS2.txt
Download
Sample DateTime Unit Id WS Avg 2min WD Avg 2min WGS 10min WGD 10min Air Temp Rel Humidity Dew Point Pyranometer Quantum Air Pressure Snow Level Rainfall PW Current Visibility CBase 1 CBase 2 CBase 3 Vert Vis
2019/11/11 00:00:00 AWS2 5.06 306 6.22 299 M M M NA NA 983.3 NA NA M NA NA NA NA
2019/11/11 00:01:00 AWS2 5.13 306 6.22 299 M M M NA NA 983.9 NA NA M NA NA NA NA
2019/11/11 00:02:00 AWS2 5.08 306 6.22 299 M M M NA NA 983.2 NA NA M NA NA NA NA
2019/11/11 00:03:00 AWS2 5.07 307 6.22 299 M M M NA NA 983.9 NA NA M NA NA NA NA
2019/11/11 00:04:00 AWS2 5.05 308 6.22 299 M M M NA NA 983.2 NA NA M NA NA NA NA
2019/11/11 00:05:00 AWS2 4.88 310 6.22 299 M M M NA NA 983.8 NA NA M NA NA NA NA
2019/11/11 00:06:00 AWS2 4.64 310 5.86 307 M M M NA NA 983.5 NA NA M NA NA NA NA
2019/11/11 00:07:00 AWS2 4.31 312 5.66 306 M M M NA NA 984.5 NA NA M NA NA NA NA
2019/11/11 00:08:00 AWS2 4.22 311 5.66 306 M M M NA NA 984.0 NA NA M NA NA NA NA
2019/11/11 00:09:00 AWS2 4.31 311 5.66 306 M M M NA NA 983.7 NA NA M NA NA NA NA
2019/11/11 00:10:00 AWS2 4.38 312 5.61 305 M M M NA NA 983.4 NA NA M NA NA NA NA
2019/11/11 00:11:00 AWS2 4.38 310 5.61 305 M M M NA NA 984.4 NA NA M NA NA NA NA
2019/11/11 00:12:00 AWS2 4.37 309 5.61 305 M M M NA NA 984.0 NA NA M NA NA NA NA
2019/11/11 00:13:00 AWS2 4.43 311 5.45 311 M M M NA NA 983.7 NA NA M NA NA NA NA
2019/11/11 00:14:00 AWS2 4.51 312 5.45 311 M M M NA NA 984.2 NA NA M NA NA NA NA
2019/11/11 00:15:00 AWS2 4.53 311 4.99 313 M M M NA NA 983.4 NA NA M NA NA NA NA
2019/11/11 00:16:00 AWS2 4.52 312 4.99 313 M M M NA NA 983.5 NA NA M NA NA NA NA
2019/11/11 00:17:00 AWS2 4.41 311 4.99 313 M M M NA NA 983.9 NA NA M NA NA NA NA
2019/11/11 00:18:00 AWS2 4.33 313 4.99 313 M M M NA NA 984.4 NA NA M NA NA NA NA
2019/11/11 00:19:00 AWS2 4.18 316 4.99 313 M M M NA NA 983.1 NA NA M NA NA NA NA
2019/11/11 00:20:00 AWS2 4.00 318 4.99 313 M M M NA NA 983.6 NA NA M NA NA NA NA
2019/11/11 00:21:00 AWS2 3.90 315 4.99 313 M M M NA NA 983.9 NA NA M NA NA NA NA
2019/11/11 00:22:00 AWS2 4.00 316 4.99 313 M M M NA NA 982.5 NA NA M NA NA NA NA
2019/11/11 00:23:00 AWS2 4.11 317 4.89 308 M M M NA NA 983.2 NA NA M NA NA NA NA
2019/11/11 00:24:00 AWS2 4.04 316 4.89 308 M M M NA NA 983.4 NA NA M NA NA NA NA
2019/11/11 00:25:00 AWS2 4.29 319 5.04 322 M M M NA NA 982.6 NA NA M NA NA NA NA
2019/11/11 00:26:00 AWS2 4.33 321 5.04 322 M M M NA NA 982.5 NA NA M NA NA NA NA
2019/11/11 00:27:00 AWS2 4.23 323 5.04 322 M M M NA NA 983.7 NA NA M NA NA NA NA
2019/11/11 00:28:00 AWS2 4.50 323 5.14 325 M M M NA NA 983.3 NA NA M NA NA NA NA
2019/11/11 00:29:00 AWS2 4.55 322 5.35 318 M M M NA NA 983.1 NA NA M NA NA NA NA
2019/11/11 00:30:00 AWS2 4.55 323 5.35 318 M M M NA NA 983.4 NA NA M NA NA NA NA
2019/11/11 00:31:00 AWS2 4.72 323 5.35 318 M M M NA NA 983.3 NA NA M NA NA NA NA
2019/11/11 00:32:00 AWS2 4.71 322 5.35 318 M M M NA NA 983.2 NA NA M NA NA NA NA
2019/11/11 00:33:00 AWS2 4.65 320 5.35 318 M M M NA NA 982.8 NA NA M NA NA NA NA
2019/11/11 00:34:00 AWS2 4.76 324 5.56 323 M M M NA NA 984.2 NA NA M NA NA NA NA
2019/11/11 00:35:00 AWS2 4.81 325 5.56 323 M M M NA NA 983.4 NA NA M NA NA NA NA
2019/11/11 00:36:00 AWS2 4.85 324 5.56 323 M M M NA NA 981.8 NA NA M NA NA NA NA
2019/11/11 00:37:00 AWS2 4.70 324 5.56 323 M M M NA NA 983.0 NA NA M NA NA NA NA
2019/11/11 00:38:00 AWS2 4.54 323 5.56 323 M M M NA NA 982.0 NA NA M NA NA NA NA
2019/11/11 00:39:00 AWS2 4.90 322 5.71 329 M M M NA NA 983.2 NA NA M NA NA NA NA
2019/11/11 00:40:00 AWS2 5.11 322 5.71 329 M M M NA NA 982.4 NA NA M NA NA NA NA
2019/11/11 00:41:00 AWS2 5.09 321 5.92 309 M M M NA NA 982.7 NA NA M NA NA NA NA
2019/11/11 00:42:00 AWS2 5.27 321 6.02 316 M M M NA NA 983.3 NA NA M NA NA NA NA
2019/11/11 00:43:00 AWS2 5.07 321 6.02 316 M M M NA NA 983.9 NA NA M NA NA NA NA
2019/11/11 00:44:00 AWS2 4.79 320 6.02 316 M M M NA NA 982.2 NA NA M NA NA NA NA
2019/11/11 00:45:00 AWS2 4.78 321 6.02 316 M M M NA NA 983.2 NA NA M NA NA NA NA
2019/11/11 00:46:00 AWS2 4.83 321 6.02 316 M M M NA NA 983.7 NA NA M NA NA NA NA
2019/11/11 00:47:00 AWS2 4.98 321 6.02 316 M M M NA NA 984.0 NA NA M NA NA NA NA
2019/11/11 00:48:00 AWS2 5.10 320 6.02 316 M M M NA NA 982.4 NA NA M NA NA NA NA
2019/11/11 00:49:00 AWS2 5.03 320 6.02 316 M M M NA NA 983.5 NA NA M NA NA NA NA
2019/11/11 00:50:00 AWS2 5.17 321 6.02 316 M M M NA NA 982.5 NA NA M NA NA NA NA
2019/11/11 00:51:00 AWS2 5.35 322 6.02 316 M M M NA NA 983.1 NA NA M NA NA NA NA
2019/11/11 00:52:00 AWS2 5.09 322 5.76 320 M M M NA NA 983.4 NA NA M NA NA NA NA
2019/11/11 00:53:00 AWS2 5.09 323 5.81 321 M M M NA NA 983.0 NA NA M NA NA NA NA
2019/11/11 00:54:00 AWS2 5.31 324 5.81 321 M M M NA NA 982.3 NA NA M NA NA NA NA
2019/11/11 00:55:00 AWS2 5.48 324 6.02 326 M M M NA NA 983.1 NA NA M NA NA NA NA
2019/11/11 00:56:00 AWS2 5.45 321 6.28 317 M M M NA NA 981.5 NA NA M NA NA NA NA
2019/11/11 00:57:00 AWS2 5.48 322 6.28 317 M M M NA NA 982.5 NA NA M NA NA NA NA
2019/11/11 00:58:00 AWS2 5.70 324 6.64 323 M M M NA NA 983.2 NA NA M NA NA NA NA
2019/11/11 00:59:00 AWS2 5.69 323 6.64 323 M M M NA NA 983.1 NA NA M NA NA NA NA
2019/11/11 01:00:00 AWS2 5.92 324 6.64 323 M M M NA NA 983.6 NA NA M NA NA NA NA
2019/11/11 01:01:00 AWS2 6.00 324 6.64 323 M M M NA NA 982.4 NA NA M NA NA NA NA
2019/11/11 01:02:00 AWS2 5.96 325 6.69 320 M M M NA NA 982.8 NA NA M NA NA NA NA
2019/11/11 01:03:00 AWS2 6.07 324 6.69 320 M M M NA NA 983.7 NA NA M NA NA NA NA
2019/11/11 01:04:00 AWS2 5.96 323 6.69 320 M M M NA NA 982.4 NA NA M NA NA NA NA
2019/11/11 01:05:00 AWS2 5.63 323 6.69 320 M M M NA NA 982.7 NA NA M NA NA NA NA
2019/11/11 01:06:00 AWS2 5.74 322 6.69 320 M M M NA NA 983.1 NA NA M NA NA NA NA
2019/11/11 01:07:00 AWS2 5.93 323 6.69 320 M M M NA NA 983.0 NA NA M NA NA NA NA
2019/11/11 01:08:00 AWS2 5.77 324 6.69 320 M M M NA NA 983.6 NA NA M NA NA NA NA
2019/11/11 01:09:00 AWS2 5.67 324 6.69 320 M M M NA NA 982.0 NA NA M NA NA NA NA
2019/11/11 01:10:00 AWS2 5.59 323 6.69 320 M M M NA NA 982.7 NA NA M NA NA NA NA
2019/11/11 01:11:00 AWS2 5.60 324 6.69 320 M M M NA NA 983.3 NA NA M NA NA NA NA
2019/11/11 01:12:00 AWS2 5.67 324 6.58 324 M M M NA NA 982.6 NA NA M NA NA NA NA
2019/11/11 01:13:00 AWS2 5.58 324 6.58 324 M M M NA NA 983.5 NA NA M NA NA NA NA
2019/11/11 01:14:00 AWS2 5.59 323 6.58 324 M M M NA NA 981.2 NA NA M NA NA NA NA
2019/11/11 01:15:00 AWS2 5.75 322 6.58 324 M M M NA NA 982.3 NA NA M NA NA NA NA
2019/11/11 01:16:00 AWS2 5.81 325 6.74 325 M M M NA NA 981.6 NA NA M NA NA NA NA
2019/11/11 01:17:00 AWS2 5.72 325 6.74 325 M M M NA NA 983.3 NA NA M NA NA NA NA
2019/11/11 01:18:00 AWS2 5.45 326 6.74 325 M M M NA NA 983.8 NA NA M NA NA NA NA
2019/11/11 01:19:00 AWS2 5.35 325 6.74 325 M M M NA NA 983.9 NA NA M NA NA NA NA
2019/11/11 01:20:00 AWS2 5.27 323 6.74 325 M M M NA NA 981.9 NA NA M NA NA NA NA
2019/11/11 01:21:00 AWS2 5.12 324 6.74 325 M M M NA NA 982.7 NA NA M NA NA NA NA
2019/11/11 01:22:00 AWS2 5.25 325 6.74 325 M M M NA NA 982.6 NA NA M NA NA NA NA
2019/11/11 01:23:00 AWS2 5.32 325 6.74 325 M M M NA NA 982.5 NA NA M NA NA NA NA
2019/11/11 01:24:00 AWS2 5.24 326 6.74 325 M M M NA NA 982.6 NA NA M NA NA NA NA
2019/11/11 01:25:00 AWS2 5.08 325 6.74 325 M M M NA NA 982.3 NA NA M NA NA NA NA
2019/11/11 01:26:00 AWS2 5.06 324 6.38 325 M M M NA NA 983.1 NA NA M NA NA NA NA
2019/11/11 01:27:00 AWS2 5.14 325 6.07 324 M M M NA NA 981.9 NA NA M NA NA NA NA
2019/11/11 01:28:00 AWS2 5.12 329 6.07 324 M M M NA NA 982.5 NA NA M NA NA NA NA
2019/11/11 01:29:00 AWS2 5.13 329 6.07 324 M M M NA NA 982.4 NA NA M NA NA NA NA
2019/11/11 01:30:00 AWS2 5.24 328 6.07 324 M M M NA NA 981.6 NA NA M NA NA NA NA
2019/11/11 01:31:00 AWS2 5.31 327 6.07 324 M M M NA NA 980.8 NA NA M NA NA NA NA
2019/11/11 01:32:00 AWS2 5.24 326 5.81 332 M M M NA NA 983.0 NA NA M NA NA NA NA
2019/11/11 01:33:00 AWS2 5.22 327 5.81 332 M M M NA NA 983.0 NA NA M NA NA NA NA
2019/11/11 01:34:00 AWS2 5.11 328 6.02 330 M M M NA NA 982.0 NA NA M NA NA NA NA
2019/11/11 01:35:00 AWS2 5.08 325 6.02 330 M M M NA NA 981.9 NA NA M NA NA NA NA
2019/11/11 01:36:00 AWS2 5.08 325 6.02 330 M M M NA NA 981.4 NA NA M NA NA NA NA
2019/11/11 01:37:00 AWS2 5.14 327 6.02 330 M M M NA NA 981.9 NA NA M NA NA NA NA
2019/11/11 01:38:00 AWS2 5.16 326 6.02 330 M M M NA NA 982.3 NA NA M NA NA NA NA
2019/11/11 01:39:00 AWS2 5.18 326 6.02 330 M M M NA NA 981.4 NA NA M NA NA NA NA
2019/11/11 01:40:00 AWS2 5.32 328 6.02 330 M M M NA NA 981.6 NA NA M NA NA NA NA
2019/11/11 01:41:01 AWS2 5.22 328 6.02 330 M M M NA NA 982.0 NA NA M NA NA NA NA
2019/11/11 01:42:01 AWS2 5.17 325 6.02 330 M M M NA NA 982.3 NA NA M NA NA NA NA
2019/11/11 01:43:01 AWS2 5.14 325 6.02 330 M M M NA NA 982.0 NA NA M NA NA NA NA
2019/11/11 01:44:01 AWS2 5.12 325 5.92 332 M M M NA NA 981.9 NA NA M NA NA NA NA
2019/11/11 01:45:01 AWS2 5.24 326 6.48 325 M M M NA NA 983.2 NA NA M NA NA NA NA
2019/11/11 01:46:01 AWS2 5.41 324 6.48 325 M M M NA NA 982.1 NA NA M NA NA NA NA
2019/11/11 01:47:01 AWS2 5.35 327 6.48 325 M M M NA NA 982.3 NA NA M NA NA NA NA
2019/11/11 01:48:01 AWS2 5.07 332 6.48 325 M M M NA NA 983.1 NA NA M NA NA NA NA
2019/11/11 01:49:01 AWS2 5.09 330 6.48 325 M M M NA NA 983.2 NA NA M NA NA NA NA
2019/11/11 01:50:01 AWS2 5.18 328 6.48 325 M M M NA NA 982.2 NA NA M NA NA NA NA
2019/11/11 01:51:01 AWS2 5.17 327 6.48 325 M M M NA NA 982.6 NA NA M NA NA NA NA
2019/11/11 01:52:01 AWS2 5.12 324 6.48 325 M M M NA NA 983.1 NA NA M NA NA NA NA
2019/11/11 01:53:01 AWS2 5.08 321 6.48 325 M M M NA NA 982.7 NA NA M NA NA NA NA
2019/11/11 01:54:01 AWS2 4.99 322 6.48 325 M M M NA NA 982.9 NA NA M NA NA NA NA
2019/11/11 01:55:01 AWS2 4.96 324 6.07 327 M M M NA NA 983.4 NA NA M NA NA NA NA
2019/11/11 01:56:01 AWS2 5.16 325 6.17 324 M M M NA NA 982.6 NA NA M NA NA NA NA
2019/11/11 01:57:01 AWS2 5.36 326 6.17 324 M M M NA NA 982.3 NA NA M NA NA NA NA
2019/11/11 01:58:01 AWS2 5.27 327 6.17 324 M M M NA NA 982.5 NA NA M NA NA NA NA
2019/11/11 01:59:01 AWS2 5.11 327 6.17 324 M M M NA NA 981.7 NA NA M NA NA NA NA
2019/11/11 02:00:01 AWS2 4.95 326 6.17 324 M M M NA NA 982.4 NA NA M NA NA NA NA
2019/11/11 02:01:01 AWS2 4.77 325 6.17 324 M M M NA NA 982.7 NA NA M NA NA NA NA
2019/11/11 02:02:01 AWS2 4.78 324 6.17 324 M M M NA NA 981.7 NA NA M NA NA NA NA
2019/11/11 02:03:01 AWS2 4.95 323 6.17 324 M M M NA NA 982.7 NA NA M NA NA NA NA
2019/11/11 02:04:01 AWS2 5.10 324 6.17 324 M M M NA NA 981.9 NA NA M NA NA NA NA
2019/11/11 02:05:01 AWS2 5.28 326 6.17 324 M M M NA NA 981.7 NA NA M NA NA NA NA
2019/11/11 02:06:01 AWS2 5.43 326 6.17 325 M M M NA NA 982.5 NA NA M NA NA NA NA
2019/11/11 02:07:01 AWS2 5.41 326 6.17 325 M M M NA NA 981.8 NA NA M NA NA NA NA
2019/11/11 02:08:01 AWS2 5.20 326 6.17 325 M M M NA NA 982.5 NA NA M NA NA NA NA
2019/11/11 02:09:01 AWS2 4.91 328 6.17 325 M M M NA NA 981.8 NA NA M NA NA NA NA
2019/11/11 02:10:01 AWS2 4.83 327 6.17 325 M M M NA NA 981.8 NA NA M NA NA NA NA
2019/11/11 02:11:01 AWS2 4.59 323 6.17 325 M M M NA NA 982.4 NA NA M NA NA NA NA
2019/11/11 02:12:01 AWS2 4.36 321 6.17 325 M M M NA NA 982.3 NA NA M NA NA NA NA
2019/11/11 02:13:01 AWS2 4.25 318 6.17 325 M M M NA NA 982.4 NA NA M NA NA NA NA
2019/11/11 02:14:01 AWS2 4.16 314 6.17 325 M M M NA NA 982.8 NA NA M NA NA NA NA
2019/11/11 02:15:01 AWS2 4.03 307 6.17 325 M M M NA NA 981.7 NA NA M NA NA NA NA
2019/11/11 02:16:01 AWS2 3.84 307 6.02 331 M M M NA NA 981.3 NA NA M NA NA NA NA
2019/11/11 02:17:01 AWS2 3.89 311 5.86 329 M M M NA NA 982.5 NA NA M NA NA NA NA
2019/11/11 02:18:01 AWS2 4.06 309 5.86 329 M M M NA NA 982.0 NA NA M NA NA NA NA
2019/11/11 02:19:01 AWS2 3.91 313 5.86 329 M M M NA NA 982.2 NA NA M NA NA NA NA
2019/11/11 02:20:01 AWS2 3.77 313 5.71 306 M M M NA NA 981.3 NA NA M NA NA NA NA
2019/11/11 02:21:01 AWS2 3.75 307 5.71 306 M M M NA NA 981.4 NA NA M NA NA NA NA
2019/11/11 02:22:01 AWS2 3.70 306 5.71 306 M M M NA NA 981.6 NA NA M NA NA NA NA
2019/11/11 02:23:01 AWS2 3.89 318 5.71 306 M M M NA NA 982.2 NA NA M NA NA NA NA
2019/11/11 02:24:01 AWS2 4.26 324 5.56 283 M M M NA NA 981.0 NA NA M NA NA NA NA
2019/11/11 02:25:01 AWS2 4.32 312 5.56 283 M M M NA NA 981.7 NA NA M NA NA NA NA
2019/11/11 02:26:01 AWS2 4.13 309 5.56 283 M M M NA NA 981.6 NA NA M NA NA NA NA
2019/11/11 02:27:01 AWS2 4.18 311 5.35 325 M M M NA NA 983.0 NA NA M NA NA NA NA
2019/11/11 02:28:01 AWS2 4.28 310 6.12 333 M M M NA NA 981.4 NA NA M NA NA NA NA
2019/11/11 02:29:01 AWS2 4.23 314 6.12 333 M M M NA NA 981.7 NA NA M NA NA NA NA
2019/11/11 02:30:01 AWS2 4.42 313 6.12 333 M M M NA NA 981.3 NA NA M NA NA NA NA
2019/11/11 02:31:01 AWS2 4.37 307 6.12 333 M M M NA NA 981.6 NA NA M NA NA NA NA
2019/11/11 02:32:01 AWS2 4.27 305 6.12 333 M M M NA NA 982.2 NA NA M NA NA NA NA
2019/11/11 02:33:01 AWS2 4.38 309 6.12 333 M M M NA NA 981.7 NA NA M NA NA NA NA
2019/11/11 02:34:01 AWS2 4.34 310 6.12 333 M M M NA NA 982.1 NA NA M NA NA NA NA
2019/11/11 02:35:01 AWS2 4.34 313 6.12 333 M M M NA NA 981.9 NA NA M NA NA NA NA
2019/11/11 02:36:01 AWS2 4.46 311 6.12 333 M M M NA NA 981.5 NA NA M NA NA NA NA
2019/11/11 02:37:01 AWS2 4.42 305 6.12 333 M M M NA NA 981.2 NA NA M NA NA NA NA
2019/11/11 02:38:01 AWS2 4.15 308 6.07 322 M M M NA NA 981.7 NA NA M NA NA NA NA
2019/11/11 02:39:01 AWS2 4.01 310 5.86 287 M M M NA NA 981.5 NA NA M NA NA NA NA
2019/11/11 02:40:01 AWS2 3.90 313 5.86 287 M M M NA NA 980.6 NA NA M NA NA NA NA
2019/11/11 02:41:01 AWS2 3.98 310 5.86 287 M M M NA NA 981.9 NA NA M NA NA NA NA
2019/11/11 02:42:01 AWS2 4.43 307 5.86 287 M M M NA NA 981.9 NA NA M NA NA NA NA
2019/11/11 02:43:01 AWS2 4.30 309 5.86 287 M M M NA NA 981.9 NA NA M NA NA NA NA
2019/11/11 02:44:01 AWS2 4.07 307 5.86 287 M M M NA NA 982.6 NA NA M NA NA NA NA
2019/11/11 02:45:01 AWS2 4.14 307 5.86 287 M M M NA NA 981.6 NA NA M NA NA NA NA
2019/11/11 02:46:01 AWS2 4.34 310 5.81 318 M M M NA NA 981.1 NA NA M NA NA NA NA
2019/11/11 02:47:01 AWS2 4.40 310 6.02 331 M M M NA NA 981.7 NA NA M NA NA NA NA
2019/11/11 02:48:01 AWS2 4.08 312 6.02 331 M M M NA NA 982.0 NA NA M NA NA NA NA
2019/11/11 02:49:01 AWS2 4.30 307 6.02 331 M M M NA NA 981.7 NA NA M NA NA NA NA
2019/11/11 02:50:01 AWS2 4.51 307 6.02 331 M M M NA NA 981.8 NA NA M NA NA NA NA
2019/11/11 02:51:01 AWS2 4.43 307 6.02 331 M M M NA NA 981.0 NA NA M NA NA NA NA
2019/11/11 02:52:01 AWS2 4.49 306 6.58 339 M M M NA NA 981.9 NA NA M NA NA NA NA
2019/11/11 02:53:01 AWS2 4.28 308 6.58 339 M M M NA NA 982.4 NA NA M NA NA NA NA
2019/11/11 02:54:01 AWS2 3.88 309 6.58 339 M M M NA NA 982.6 NA NA M NA NA NA NA
2019/11/11 02:55:01 AWS2 4.12 313 6.58 339 M M M NA NA 981.4 NA NA M NA NA NA NA
2019/11/11 02:56:01 AWS2 4.16 315 6.58 339 M M M NA NA 982.4 NA NA M NA NA NA NA
2019/11/11 02:57:01 AWS2 4.03 317 6.58 339 M M M NA NA 981.8 NA NA M NA NA NA NA
2019/11/11 02:58:01 AWS2 4.34 314 6.69 317 M M M NA NA 981.8 NA NA M NA NA NA NA
2019/11/11 02:59:00 AWS2 4.30 316 6.69 317 M M M NA NA 981.5 NA NA M NA NA NA NA
2019/11/11 03:00:00 AWS2 4.32 313 6.69 317 M M M NA NA 981.5 NA NA M NA NA NA NA
2019/11/11 03:01:00 AWS2 4.48 308 6.69 317 M M M NA NA 981.3 NA NA M NA NA NA NA
2019/11/11 03:02:00 AWS2 4.23 306 6.69 317 M M M NA NA 981.2 NA NA M NA NA NA NA
2019/11/11 03:03:00 AWS2 4.33 308 6.69 317 M M M NA NA 981.3 NA NA M NA NA NA NA
2019/11/11 03:04:00 AWS2 4.54 308 6.69 317 M M M NA NA 981.0 NA NA M NA NA NA NA
2019/11/11 03:05:00 AWS2 4.32 313 6.69 317 M M M NA NA 981.5 NA NA M NA NA NA NA
2019/11/11 03:06:00 AWS2 4.27 316 6.69 317 M M M NA NA 980.6 NA NA M NA NA NA NA
2019/11/11 03:07:00 AWS2 4.46 311 6.69 314 M M M NA NA 981.5 NA NA M NA NA NA NA
2019/11/11 03:08:00 AWS2 4.53 316 6.69 314 M M M NA NA 981.4 NA NA M NA NA NA NA
2019/11/11 03:09:00 AWS2 4.05 317 6.69 314 M M M NA NA 981.4 NA NA M NA NA NA NA
2019/11/11 03:10:00 AWS2 3.71 322 6.69 314 M M M NA NA 981.2 NA NA M NA NA NA NA
2019/11/11 03:11:00 AWS2 4.02 323 6.69 314 M M M NA NA 980.5 NA NA M NA NA NA NA
2019/11/11 03:12:00 AWS2 4.11 303 6.69 314 M M M NA NA 980.3 NA NA M NA NA NA NA
2019/11/11 03:13:00 AWS2 4.25 306 6.69 314 M M M NA NA 981.9 NA NA M NA NA NA NA
2019/11/11 03:14:00 AWS2 4.30 320 6.69 314 M M M NA NA 980.4 NA NA M NA NA NA NA
2019/11/11 03:15:00 AWS2 4.39 330 6.69 314 M M M NA NA 981.7 NA NA M NA NA NA NA
2019/11/11 03:16:00 AWS2 4.10 325 6.69 314 M M M NA NA 981.5 NA NA M NA NA NA NA
2019/11/11 03:17:00 AWS2 3.69 314 5.61 351 M M M NA NA 981.5 NA NA M NA NA NA NA
2019/11/11 03:18:00 AWS2 4.20 317 6.43 298 M M M NA NA 980.9 NA NA M NA NA NA NA
2019/11/11 03:19:00 AWS2 4.61 325 6.43 298 M M M NA NA 980.6 NA NA M NA NA NA NA
2019/11/11 03:20:00 AWS2 4.66 333 6.43 298 M M M NA NA 981.3 NA NA M NA NA NA NA
2019/11/11 03:21:00 AWS2 4.48 319 6.43 298 M M M NA NA 981.3 NA NA M NA NA NA NA
2019/11/11 03:22:00 AWS2 4.26 313 6.43 298 M M M NA NA 980.6 NA NA M NA NA NA NA
2019/11/11 03:23:00 AWS2 4.03 320 6.43 298 M M M NA NA 981.0 NA NA M NA NA NA NA
2019/11/11 03:24:00 AWS2 3.86 323 6.43 298 M M M NA NA 980.1 NA NA M NA NA NA NA
2019/11/11 03:25:00 AWS2 3.96 332 6.43 298 M M M NA NA 980.8 NA NA M NA NA NA NA
2019/11/11 03:26:00 AWS2 4.42 333 6.43 298 M M M NA NA 981.4 NA NA M NA NA NA NA
2019/11/11 03:27:00 AWS2 4.21 324 6.43 298 M M M NA NA 981.3 NA NA M NA NA NA NA
2019/11/11 03:28:00 AWS2 3.78 319 6.12 354 M M M NA NA 981.1 NA NA M NA NA NA NA
2019/11/11 03:29:00 AWS2 4.00 315 6.12 354 M M M NA NA 980.6 NA NA M NA NA NA NA
2019/11/11 03:30:00 AWS2 4.26 327 6.02 340 M M M NA NA 981.4 NA NA M NA NA NA NA
2019/11/11 03:31:00 AWS2 4.23 340 6.02 340 M M M NA NA 981.1 NA NA M NA NA NA NA
2019/11/11 03:32:00 AWS2 3.90 325 6.02 340 M M M NA NA 981.1 NA NA M NA NA NA NA
2019/11/11 03:33:00 AWS2 4.25 321 6.02 340 M M M NA NA 981.0 NA NA M NA NA NA NA
2019/11/11 03:34:00 AWS2 4.60 334 6.02 340 M M M NA NA 980.6 NA NA M NA NA NA NA
2019/11/11 03:35:00 AWS2 4.22 328 6.02 340 M M M NA NA 980.4 NA NA M NA NA NA NA
2019/11/11 03:36:00 AWS2 3.98 321 6.02 340 M M M NA NA 980.8 NA NA M NA NA NA NA
2019/11/11 03:37:00 AWS2 4.26 330 6.02 340 M M M NA NA 981.0 NA NA M NA NA NA NA
2019/11/11 03:38:00 AWS2 4.91 334 6.17 345 M M M NA NA 980.9 NA NA M NA NA NA NA
2019/11/11 03:39:00 AWS2 5.11 336 6.74 354 M M M NA NA 980.6 NA NA M NA NA NA NA
2019/11/11 03:40:00 AWS2 4.48 326 6.74 354 M M M NA NA 979.9 NA NA M NA NA NA NA
2019/11/11 03:41:00 AWS2 4.15 317 6.74 354 M M M NA NA 980.1 NA NA M NA NA NA NA
2019/11/11 03:42:00 AWS2 3.79 323 6.74 354 M M M NA NA 980.6 NA NA M NA NA NA NA
2019/11/11 03:43:00 AWS2 3.42 322 6.74 354 M M M NA NA 981.0 NA NA M NA NA NA NA
2019/11/11 03:44:00 AWS2 4.01 326 6.74 354 M M M NA NA 980.6 NA NA M NA NA NA NA
2019/11/11 03:45:00 AWS2 4.58 332 6.74 354 M M M NA NA 980.5 NA NA M NA NA NA NA
2019/11/11 03:46:00 AWS2 4.80 329 6.74 354 M M M NA NA 979.8 NA NA M NA NA NA NA
2019/11/11 03:47:00 AWS2 5.39 341 7.25 349 M M M NA NA 980.2 NA NA M NA NA NA NA
2019/11/11 03:48:00 AWS2 4.90 344 7.25 349 M M M NA NA 979.4 NA NA M NA NA NA NA
2019/11/11 03:49:00 AWS2 4.04 326 7.25 349 M M M NA NA 979.9 NA NA M NA NA NA NA
2019/11/11 03:50:00 AWS2 4.26 330 7.25 349 M M M NA NA 981.0 NA NA M NA NA NA NA
2019/11/11 03:51:00 AWS2 4.00 330 7.25 349 M M M NA NA 979.4 NA NA M NA NA NA NA
2019/11/11 03:52:00 AWS2 4.24 335 7.25 349 M M M NA NA 980.6 NA NA M NA NA NA NA
2019/11/11 03:53:00 AWS2 4.83 348 7.25 349 M M M NA NA 980.0 NA NA M NA NA NA NA
2019/11/11 03:54:00 AWS2 4.99 353 7.25 349 M M M NA NA 980.3 NA NA M NA NA NA NA
2019/11/11 03:55:00 AWS2 4.98 357 7.25 349 M M M NA NA 979.6 NA NA M NA NA NA NA
2019/11/11 03:56:00 AWS2 4.67 351 7.25 349 M M M NA NA 980.3 NA NA M NA NA NA NA
2019/11/11 03:57:00 AWS2 5.04 342 6.84 349 M M M NA NA 980.4 NA NA M NA NA NA NA
2019/11/11 03:58:00 AWS2 5.24 341 6.84 349 M M M NA NA 980.2 NA NA M NA NA NA NA
2019/11/11 03:59:00 AWS2 4.55 345 6.84 349 M M M NA NA 979.9 NA NA M NA NA NA NA
2019/11/11 04:00:00 AWS2 4.74 347 6.84 349 M M M NA NA 980.4 NA NA M NA NA NA NA
2019/11/11 04:01:00 AWS2 5.12 343 6.84 349 M M M NA NA 979.7 NA NA M NA NA NA NA
2019/11/11 04:02:00 AWS2 5.61 348 7.97 348 M M M NA NA 981.2 NA NA M NA NA NA NA
2019/11/11 04:03:00 AWS2 5.80 350 7.97 348 M M M NA NA 980.9 NA NA M NA NA NA NA
2019/11/11 04:04:00 AWS2 4.99 343 7.97 348 M M M NA NA 979.9 NA NA M NA NA NA NA
2019/11/11 04:05:00 AWS2 5.37 343 7.97 348 M M M NA NA 980.4 NA NA M NA NA NA NA
2019/11/11 04:06:00 AWS2 5.80 350 7.97 348 M M M NA NA 979.5 NA NA M NA NA NA NA
2019/11/11 04:07:00 AWS2 5.46 344 7.97 348 M M M NA NA 980.5 NA NA M NA NA NA NA
2019/11/11 04:08:00 AWS2 5.43 346 7.97 348 M M M NA NA 980.1 NA NA M NA NA NA NA
2019/11/11 04:09:00 AWS2 5.71 351 7.97 348 M M M NA NA 980.7 NA NA M NA NA NA NA
2019/11/11 04:10:00 AWS2 5.41 340 7.97 348 M M M NA NA 979.9 NA NA M NA NA NA NA
2019/11/11 04:11:00 AWS2 4.70 343 7.97 348 M M M NA NA 979.3 NA NA M NA NA NA NA
2019/11/11 04:12:00 AWS2 5.21 351 7.15 345 M M M NA NA 979.7 NA NA M NA NA NA NA
2019/11/11 04:13:00 AWS2 5.40 353 7.15 345 M M M NA NA 979.9 NA NA M NA NA NA NA
2019/11/11 04:14:00 AWS2 5.61 355 7.31 355 M M M NA NA 979.9 NA NA M NA NA NA NA
2019/11/11 04:15:00 AWS2 6.09 351 7.61 1 M M M NA NA 979.7 NA NA M NA NA NA NA
2019/11/11 04:16:00 AWS2 6.27 356 7.61 1 M M M NA NA 979.9 NA NA M NA NA NA NA
2019/11/11 04:17:00 AWS2 6.82 354 8.18 353 M M M NA NA 979.1 NA NA M NA NA NA NA
2019/11/11 04:18:00 AWS2 6.26 348 8.18 353 M M M NA NA 979.7 NA NA M NA NA NA NA
2019/11/11 04:19:00 AWS2 5.35 346 8.18 353 M M M NA NA 978.9 NA NA M NA NA NA NA
2019/11/11 04:20:00 AWS2 5.89 347 8.18 353 M M M NA NA 979.0 NA NA M NA NA NA NA
2019/11/11 04:21:00 AWS2 5.75 352 8.18 353 M M M NA NA 979.1 NA NA M NA NA NA NA
2019/11/11 04:22:00 AWS2 5.50 346 8.18 353 M M M NA NA 979.4 NA NA M NA NA NA NA
2019/11/11 04:23:00 AWS2 5.92 348 8.18 353 M M M NA NA 980.4 NA NA M NA NA NA NA
2019/11/11 04:24:00 AWS2 5.94 355 8.18 353 M M M NA NA 979.7 NA NA M NA NA NA NA
2019/11/11 04:25:00 AWS2 6.39 352 8.18 353 M M M NA NA 979.2 NA NA M NA NA NA NA
2019/11/11 04:26:00 AWS2 5.95 353 8.18 353 M M M NA NA 979.7 NA NA M NA NA NA NA
2019/11/11 04:27:00 AWS2 5.39 356 8.08 1 M M M NA NA 978.8 NA NA M NA NA NA NA
2019/11/11 04:28:00 AWS2 6.12 358 8.39 349 M M M NA NA 979.6 NA NA M NA NA NA NA
2019/11/11 04:29:00 AWS2 6.34 358 8.39 349 M M M NA NA 979.2 NA NA M NA NA NA NA
2019/11/11 04:30:00 AWS2 6.11 355 8.39 349 M M M NA NA 979.2 NA NA M NA NA NA NA
2019/11/11 04:31:00 AWS2 6.12 352 8.39 349 M M M NA NA 979.2 NA NA M NA NA NA NA
2019/11/11 04:32:00 AWS2 6.54 352 8.39 349 M M M NA NA 979.2 NA NA M NA NA NA NA
2019/11/11 04:33:00 AWS2 6.47 354 8.39 349 M M M NA NA 978.4 NA NA M NA NA NA NA
2019/11/11 04:34:00 AWS2 5.97 351 8.39 349 M M M NA NA 978.8 NA NA M NA NA NA NA
2019/11/11 04:35:00 AWS2 6.12 353 8.39 349 M M M NA NA 978.1 NA NA M NA NA NA NA
2019/11/11 04:36:00 AWS2 6.22 355 8.39 349 M M M NA NA 978.5 NA NA M NA NA NA NA
2019/11/11 04:37:00 AWS2 6.24 353 8.39 349 M M M NA NA 978.2 NA NA M NA NA NA NA
2019/11/11 04:38:00 AWS2 6.25 352 8.03 343 M M M NA NA 978.4 NA NA M NA NA NA NA
2019/11/11 04:39:00 AWS2 6.21 350 8.03 343 M M M NA NA 977.6 NA NA M NA NA NA NA
2019/11/11 04:40:00 AWS2 6.53 354 8.18 355 M M M NA NA 978.9 NA NA M NA NA NA NA
2019/11/11 04:41:00 AWS2 6.55 360 8.18 355 M M M NA NA 976.5 NA NA M NA NA NA NA
2019/11/11 04:42:00 AWS2 6.07 355 8.18 355 M M M NA NA 977.4 NA NA M NA NA NA NA
2019/11/11 04:43:00 AWS2 5.94 350 8.18 355 M M M NA NA 979.6 NA NA M NA NA NA NA
2019/11/11 04:44:00 AWS2 6.17 350 8.18 355 M M M NA NA 978.3 NA NA M NA NA NA NA
2019/11/11 04:45:00 AWS2 6.49 350 8.18 355 M M M NA NA 977.8 NA NA M NA NA NA NA
2019/11/11 04:46:00 AWS2 6.09 350 8.18 355 M M M NA NA 977.7 NA NA M NA NA NA NA
2019/11/11 04:47:00 AWS2 6.32 356 8.18 355 M M M NA NA 978.1 NA NA M NA NA NA NA
2019/11/11 04:48:00 AWS2 7.18 358 8.28 352 M M M NA NA 978.0 NA NA M NA NA NA NA
2019/11/11 04:49:00 AWS2 6.54 353 8.28 352 M M M NA NA 978.7 NA NA M NA NA NA NA
2019/11/11 04:50:00 AWS2 6.26 354 8.28 352 M M M NA NA 977.4 NA NA M NA NA NA NA
2019/11/11 04:51:00 AWS2 7.04 356 8.28 352 M M M NA NA 977.1 NA NA M NA NA NA NA
2019/11/11 04:52:00 AWS2 7.29 356 8.28 352 M M M NA NA 977.4 NA NA M NA NA NA NA
2019/11/11 04:53:00 AWS2 6.98 357 8.28 352 M M M NA NA 977.3 NA NA M NA NA NA NA
2019/11/11 04:54:00 AWS2 6.20 354 8.28 352 M M M NA NA 977.8 NA NA M NA NA NA NA
2019/11/11 04:55:00 AWS2 6.32 350 8.28 352 M M M NA NA 978.2 NA NA M NA NA NA NA
2019/11/11 04:56:00 AWS2 7.17 353 8.39 10 M M M NA NA 977.4 NA NA M NA NA NA NA
2019/11/11 04:57:00 AWS2 7.43 356 8.54 1 M M M NA NA 977.3 NA NA M NA NA NA NA
2019/11/11 04:58:00 AWS2 7.45 358 8.75 1 M M M NA NA 977.9 NA NA M NA NA NA NA
2019/11/11 04:59:00 AWS2 7.26 359 8.75 1 M M M NA NA 977.5 NA NA M NA NA NA NA
2019/11/11 05:00:00 AWS2 7.02 359 8.75 1 M M M NA NA 977.9 NA NA M NA NA NA NA
2019/11/11 05:01:00 AWS2 7.67 357 9.26 350 M M M NA NA 977.3 NA NA M NA NA NA NA
2019/11/11 05:02:00 AWS2 8.14 357 9.26 350 M M M NA NA 977.5 NA NA M NA NA NA NA
2019/11/11 05:03:00 AWS2 7.61 358 9.26 350 M M M NA NA 978.5 NA NA M NA NA NA NA
2019/11/11 05:04:00 AWS2 7.47 0 9.26 350 M M M NA NA 978.1 NA NA M NA NA NA NA
2019/11/11 05:05:00 AWS2 7.56 358 9.26 350 M M M NA NA 979.9 NA NA M NA NA NA NA
2019/11/11 05:06:00 AWS2 7.48 354 9.26 350 M M M NA NA 978.6 NA NA M NA NA NA NA
2019/11/11 05:07:00 AWS2 7.84 354 9.26 350 M M M NA NA 978.7 NA NA M NA NA NA NA
2019/11/11 05:08:00 AWS2 7.78 357 9.26 350 M M M NA NA 979.2 NA NA M NA NA NA NA
2019/11/11 05:09:00 AWS2 7.60 356 9.26 350 M M M NA NA 978.5 NA NA M NA NA NA NA
2019/11/11 05:10:00 AWS2 7.70 354 9.26 350 M M M NA NA 980.0 NA NA M NA NA NA NA
2019/11/11 05:11:00 AWS2 7.69 356 9.05 352 M M M NA NA 977.5 NA NA M NA NA NA NA
2019/11/11 05:12:00 AWS2 8.13 358 9.83 1 M M M NA NA 979.3 NA NA M NA NA NA NA
2019/11/11 05:13:00 AWS2 7.99 355 9.83 1 M M M NA NA 979.7 NA NA M NA NA NA NA
2019/11/11 05:14:00 AWS2 8.29 348 9.83 1 M M M NA NA 977.4 NA NA M NA NA NA NA
2019/11/11 05:15:00 AWS2 8.91 350 9.83 1 M M M NA NA 978.4 NA NA M NA NA NA NA
2019/11/11 05:16:00 AWS2 8.84 353 9.83 1 M M M NA NA 978.5 NA NA M NA NA NA NA
2019/11/11 05:17:00 AWS2 8.91 353 9.83 1 M M M NA NA 978.9 NA NA M NA NA NA NA
2019/11/11 05:18:01 AWS2 8.60 355 9.98 355 M M M NA NA 978.9 NA NA M NA NA NA NA
2019/11/11 05:19:01 AWS2 8.46 355 9.98 355 M M M NA NA 977.2 NA NA M NA NA NA NA
2019/11/11 05:20:01 AWS2 8.44 355 9.98 355 M M M NA NA 978.5 NA NA M NA NA NA NA
2019/11/11 05:21:01 AWS2 8.05 356 9.98 355 M M M NA NA 976.8 NA NA M NA NA NA NA
2019/11/11 05:22:01 AWS2 7.65 350 9.98 355 M M M NA NA 978.8 NA NA M NA NA NA NA
2019/11/11 05:23:01 AWS2 7.79 346 9.98 355 M M M NA NA 978.2 NA NA M NA NA NA NA
2019/11/11 05:24:01 AWS2 8.45 354 9.98 355 M M M NA NA 978.5 NA NA M NA NA NA NA
2019/11/11 05:25:01 AWS2 8.65 357 9.98 355 M M M NA NA 977.3 NA NA M NA NA NA NA
2019/11/11 05:26:01 AWS2 8.46 358 9.98 355 M M M NA NA 977.8 NA NA M NA NA NA NA
2019/11/11 05:27:01 AWS2 8.88 357 9.98 355 M M M NA NA 976.5 NA NA M NA NA NA NA
2019/11/11 05:28:01 AWS2 8.92 358 9.77 9 M M M NA NA 978.9 NA NA M NA NA NA NA
2019/11/11 05:29:01 AWS2 8.39 355 9.77 9 M M M NA NA 977.4 NA NA M NA NA NA NA
2019/11/11 05:30:01 AWS2 8.24 351 9.77 9 M M M NA NA 977.6 NA NA M NA NA NA NA
2019/11/11 05:31:01 AWS2 8.59 352 10.08 5 M M M NA NA 976.7 NA NA M NA NA NA NA
2019/11/11 05:32:01 AWS2 8.30 357 10.08 5 M M M NA NA 978.3 NA NA M NA NA NA NA
2019/11/11 05:33:01 AWS2 7.65 359 10.08 5 M M M NA NA 976.6 NA NA M NA NA NA NA
2019/11/11 05:34:01 AWS2 8.20 359 10.08 5 M M M NA NA 977.3 NA NA M NA NA NA NA
2019/11/11 05:35:01 AWS2 8.42 356 10.08 5 M M M NA NA 975.7 NA NA M NA NA NA NA
2019/11/11 05:36:01 AWS2 8.08 354 10.08 5 M M M NA NA 978.7 NA NA M NA NA NA NA
2019/11/11 05:37:01 AWS2 8.26 358 10.08 5 M M M NA NA 977.2 NA NA M NA NA NA NA
2019/11/11 05:38:01 AWS2 7.91 359 10.08 5 M M M NA NA 977.8 NA NA M NA NA NA NA
2019/11/11 05:39:01 AWS2 7.73 354 10.08 5 M M M NA NA 978.0 NA NA M NA NA NA NA
2019/11/11 05:40:01 AWS2 7.85 352 10.08 5 M M M NA NA 977.3 NA NA M NA NA NA NA
2019/11/11 05:41:01 AWS2 7.89 354 9.47 354 M M M NA NA 976.1 NA NA M NA NA NA NA
2019/11/11 05:42:01 AWS2 8.60 347 9.67 5 M M M NA NA 977.3 NA NA M NA NA NA NA
2019/11/11 05:43:01 AWS2 8.92 350 9.67 5 M M M NA NA 978.4 NA NA M NA NA NA NA
2019/11/11 05:44:01 AWS2 8.46 359 9.67 5 M M M NA NA 976.9 NA NA M NA NA NA NA
2019/11/11 05:45:01 AWS2 8.03 356 9.67 5 M M M NA NA 977.6 NA NA M NA NA NA NA
2019/11/11 05:46:01 AWS2 7.75 352 9.67 5 M M M NA NA 976.5 NA NA M NA NA NA NA
2019/11/11 05:47:02 AWS2 7.61 350 9.67 5 M M M NA NA M NA NA M NA NA NA NA
2019/11/11 05:48:02 AWS2 7.81 353 9.67 5 M M M NA NA 976.9 NA NA M NA NA NA NA
2019/11/11 05:49:01 AWS2 8.10 357 9.67 5 M M M NA NA 979.3 NA NA M NA NA NA NA
2019/11/11 05:50:01 AWS2 8.29 356 9.67 5 M M M NA NA 978.5 NA NA M NA NA NA NA
2019/11/11 05:51:01 AWS2 8.35 354 9.67 5 M M M NA NA 977.4 NA NA M NA NA NA NA
2019/11/11 05:52:01 AWS2 8.10 354 9.52 1 M M M NA NA 978.7 NA NA M NA NA NA NA
2019/11/11 05:53:01 AWS2 7.70 353 9.05 1 M M M NA NA 975.9 NA NA M NA NA NA NA
2019/11/11 05:54:01 AWS2 7.34 353 9.05 1 M M M NA NA 977.5 NA NA M NA NA NA NA
2019/11/11 05:55:01 AWS2 7.27 353 9.05 1 M M M NA NA 978.4 NA NA M NA NA NA NA
2019/11/11 05:56:01 AWS2 7.52 354 9.05 1 M M M NA NA 978.0 NA NA M NA NA NA NA
2019/11/11 05:57:02 AWS2 7.89 356 9.52 103 M M M NA NA 978.8 NA NA M NA NA NA NA
2019/11/11 05:58:01 AWS2 8.06 356 9.52 103 M M M NA NA 976.8 NA NA M NA NA NA NA
2019/11/11 05:59:01 AWS2 7.25 351 9.52 103 M M M NA NA 978.3 NA NA M NA NA NA NA
2019/11/11 06:00:02 AWS2 6.20 346 9.52 103 M M M NA NA 978.2 NA NA M NA NA NA NA
2019/11/11 06:01:02 AWS2 6.74 348 9.52 103 M M M NA NA 978.0 NA NA M NA NA NA NA
2019/11/11 06:02:01 AWS2 7.21 350 9.52 103 M M M NA NA 977.1 NA NA M NA NA NA NA
2019/11/11 06:03:01 AWS2 7.18 351 9.52 103 M M M NA NA 978.0 NA NA M NA NA NA NA
2019/11/11 06:04:01 AWS2 7.31 350 9.52 103 M M M NA NA 978.3 NA NA M NA NA NA NA
2019/11/11 06:05:02 AWS2 7.67 351 9.52 103 M M M NA NA 976.7 NA NA M NA NA NA NA
2019/11/11 06:06:02 AWS2 8.14 350 9.52 103 M M M NA NA 977.3 NA NA M NA NA NA NA
2019/11/11 06:07:00 AWS2 7.77 351 9.21 1 M M M NA NA 977.2 NA NA M NA NA NA NA
2019/11/11 06:08:01 AWS2 7.70 354 9.21 1 M M M NA NA 977.4 NA NA M NA NA NA NA
2019/11/11 06:09:01 AWS2 7.13 355 9.21 1 M M M NA NA 977.7 NA NA M NA NA NA NA
2019/11/11 06:10:01 AWS2 7.01 351 9.21 1 M M M NA NA 976.6 NA NA M NA NA NA NA
2019/11/11 06:11:00 AWS2 7.51 348 9.21 1 M M M NA NA 978.1 NA NA M NA NA NA NA
2019/11/11 06:12:01 AWS2 7.09 350 9.21 1 M M M NA NA 977.9 NA NA M NA NA NA NA
2019/11/11 06:13:02 AWS2 7.56 352 10.08 350 M M M NA NA 977.7 NA NA M NA NA NA NA
2019/11/11 06:14:00 AWS2 7.85 360 10.08 350 M M M NA NA 976.7 NA NA M NA NA NA NA
2019/11/11 06:15:01 AWS2 7.66 356 10.08 350 M M M NA NA 977.6 NA NA M NA NA NA NA
2019/11/11 06:16:01 AWS2 7.79 348 10.08 350 M M M NA NA 977.6 NA NA M NA NA NA NA
2019/11/11 06:17:01 AWS2 7.77 350 10.08 350 M M M NA NA 977.2 NA NA M NA NA NA NA
2019/11/11 06:18:02 AWS2 7.92 354 10.08 350 M M M NA NA 976.6 NA NA M NA NA NA NA
2019/11/11 06:19:02 AWS2 7.91 355 10.08 350 M M M NA NA 977.4 NA NA M NA NA NA NA
2019/11/11 06:20:01 AWS2 7.52 349 10.08 350 M M M NA NA 977.6 NA NA M NA NA NA NA
2019/11/11 06:21:01 AWS2 7.31 349 10.08 350 M M M NA NA 978.1 NA NA M NA NA NA NA
2019/11/11 06:22:01 AWS2 7.46 350 10.08 350 M M M NA NA 977.4 NA NA M NA NA NA NA
2019/11/11 06:23:02 AWS2 7.79 351 9.57 355 M M M NA NA 978.0 NA NA M NA NA NA NA
2019/11/11 06:24:01 AWS2 8.21 355 9.21 8 M M M NA NA 977.7 NA NA M NA NA NA NA
2019/11/11 06:25:01 AWS2 8.16 355 9.11 9 M M M NA NA 976.7 NA NA M NA NA NA NA
2019/11/11 06:26:01 AWS2 8.52 354 9.93 344 M M M NA NA 977.7 NA NA M NA NA NA NA
2019/11/11 06:27:01 AWS2 8.30 353 9.93 344 M M M NA NA 977.5 NA NA M NA NA NA NA
2019/11/11 06:28:01 AWS2 7.64 357 9.93 344 M M M NA NA 977.5 NA NA M NA NA NA NA
2019/11/11 06:29:01 AWS2 7.58 356 9.93 344 M M M NA NA 977.0 NA NA M NA NA NA NA
2019/11/11 06:30:01 AWS2 7.78 352 9.93 344 M M M NA NA 976.8 NA NA M NA NA NA NA
2019/11/11 06:31:02 AWS2 8.11 352 9.93 344 M M M NA NA 976.9 NA NA M NA NA NA NA
2019/11/11 06:32:00 AWS2 7.95 358 9.93 344 M M M NA NA 977.3 NA NA M NA NA NA NA
2019/11/11 06:33:01 AWS2 7.89 2 9.93 344 M M M NA NA 976.9 NA NA M NA NA NA NA
2019/11/11 06:34:01 AWS2 8.02 359 9.93 344 M M M NA NA 976.5 NA NA M NA NA NA NA
2019/11/11 06:35:03 AWS2 8.39 3 10.13 6 M M M NA NA 976.4 NA NA M NA NA NA NA
2019/11/11 06:36:01 AWS2 8.64 2 10.13 6 M M M NA NA 976.7 NA NA M NA NA NA NA
2019/11/11 06:37:01 AWS2 8.13 354 10.13 6 M M M NA NA 976.7 NA NA M NA NA NA NA
2019/11/11 06:38:01 AWS2 7.88 355 10.13 6 M M M NA NA 975.9 NA NA M NA NA NA NA
2019/11/11 06:39:01 AWS2 7.81 360 10.13 6 M M M NA NA 977.1 NA NA M NA NA NA NA
2019/11/11 06:40:01 AWS2 7.78 357 10.13 6 M M M NA NA 975.9 NA NA M NA NA NA NA
2019/11/11 06:41:01 AWS2 7.82 356 10.13 6 M M M NA NA 976.0 NA NA M NA NA NA NA
2019/11/11 06:42:01 AWS2 7.73 354 10.13 6 M M M NA NA 977.0 NA NA M NA NA NA NA
2019/11/11 06:43:01 AWS2 7.97 351 10.13 6 M M M NA NA 976.4 NA NA M NA NA NA NA
2019/11/11 06:44:01 AWS2 8.30 355 10.13 6 M M M NA NA 977.3 NA NA M NA NA NA NA
2019/11/11 06:45:01 AWS2 8.88 359 9.98 1 M M M NA NA 976.8 NA NA M NA NA NA NA
2019/11/11 06:46:01 AWS2 9.17 0 9.98 1 M M M NA NA 976.1 NA NA M NA NA NA NA
2019/11/11 06:47:01 AWS2 8.82 358 9.98 1 M M M NA NA 976.1 NA NA M NA NA NA NA
2019/11/11 06:48:01 AWS2 8.95 357 10.08 4 M M M NA NA 975.3 NA NA M NA NA NA NA
2019/11/11 06:49:01 AWS2 8.99 355 10.08 4 M M M NA NA 976.6 NA NA M NA NA NA NA
2019/11/11 06:50:01 AWS2 8.76 353 10.19 355 M M M NA NA 976.3 NA NA M NA NA NA NA
2019/11/11 06:51:01 AWS2 8.49 358 10.19 355 M M M NA NA 975.8 NA NA M NA NA NA NA
2019/11/11 06:52:01 AWS2 8.27 1 10.19 355 M M M NA NA 975.8 NA NA M NA NA NA NA
2019/11/11 06:53:01 AWS2 8.23 1 10.19 355 M M M NA NA 975.6 NA NA M NA NA NA NA
2019/11/11 06:54:01 AWS2 8.57 1 10.19 355 M M M NA NA 975.4 NA NA M NA NA NA NA
2019/11/11 06:55:01 AWS2 8.88 3 10.19 355 M M M NA NA 975.7 NA NA M NA NA NA NA
2019/11/11 06:56:01 AWS2 8.49 6 10.19 355 M M M NA NA 975.7 NA NA M NA NA NA NA
2019/11/11 06:57:02 AWS2 8.41 4 10.19 355 M M M NA NA 975.2 NA NA M NA NA NA NA
2019/11/11 06:58:01 AWS2 8.70 1 10.19 355 M M M NA NA 976.2 NA NA M NA NA NA NA
2019/11/11 06:59:01 AWS2 8.66 1 10.19 355 M M M NA NA 976.0 NA NA M NA NA NA NA
2019/11/11 07:00:01 AWS2 8.76 359 9.67 354 M M M NA NA 976.6 NA NA M NA NA NA NA
2019/11/11 07:01:02 AWS2 8.59 359 9.67 354 M M M NA NA 975.1 NA NA M NA NA NA NA
2019/11/11 07:02:01 AWS2 8.60 0 9.67 354 M M M NA NA 975.6 NA NA M NA NA NA NA
2019/11/11 07:03:01 AWS2 8.70 2 9.67 354 M M M NA NA 975.4 NA NA M NA NA NA NA
2019/11/11 07:04:01 AWS2 8.54 3 9.67 354 M M M NA NA 975.7 NA NA M NA NA NA NA
2019/11/11 07:05:01 AWS2 8.54 4 9.67 354 M M M NA NA 975.7 NA NA M NA NA NA NA
2019/11/11 07:06:01 AWS2 8.24 5 9.67 354 M M M NA NA 975.5 NA NA M NA NA NA NA
2019/11/11 07:07:02 AWS2 8.47 1 10.08 1 M M M NA NA 976.5 NA NA M NA NA NA NA
2019/11/11 07:08:00 AWS2 8.48 0 10.08 1 M M M NA NA 976.0 NA NA M NA NA NA NA
2019/11/11 07:09:01 AWS2 7.94 4 10.08 1 M M M NA NA 976.4 NA NA M NA NA NA NA
2019/11/11 07:10:01 AWS2 8.48 4 10.08 1 M M M NA NA 975.8 NA NA M NA NA NA NA
2019/11/11 07:11:01 AWS2 8.97 3 10.08 1 M M M NA NA 975.7 NA NA M NA NA NA NA
2019/11/11 07:12:01 AWS2 8.96 3 10.08 1 M M M NA NA 975.2 NA NA M NA NA NA NA
2019/11/11 07:13:01 AWS2 8.43 3 10.08 1 M M M NA NA 975.5 NA NA M NA NA NA NA
2019/11/11 07:14:01 AWS2 7.86 3 10.08 1 M M M NA NA 975.9 NA NA M NA NA NA NA
2019/11/11 07:15:01 AWS2 7.88 3 10.08 1 M M M NA NA 976.1 NA NA M NA NA NA NA
2019/11/11 07:16:01 AWS2 7.89 360 10.08 1 M M M NA NA 974.5 NA NA M NA NA NA NA
2019/11/11 07:17:01 AWS2 8.12 359 9.88 1 M M M NA NA 976.0 NA NA M NA NA NA NA
2019/11/11 07:18:00 AWS2 8.34 4 9.88 1 M M M NA NA 976.3 NA NA M NA NA NA NA
2019/11/11 07:19:01 AWS2 8.24 5 9.88 1 M M M NA NA 975.2 NA NA M NA NA NA NA
2019/11/11 07:20:00 AWS2 8.44 8 10.80 12 M M M NA NA 976.2 NA NA M NA NA NA NA
2019/11/11 07:21:01 AWS2 8.84 10 10.80 12 M M M NA NA 975.7 NA NA M NA NA NA NA
2019/11/11 07:22:01 AWS2 8.58 9 10.80 12 M M M NA NA 975.2 NA NA M NA NA NA NA
2019/11/11 07:23:01 AWS2 8.53 10 10.80 12 M M M NA NA 975.1 NA NA M NA NA NA NA
2019/11/11 07:24:01 AWS2 8.78 8 10.80 12 M M M NA NA 974.9 NA NA M NA NA NA NA
2019/11/11 07:25:01 AWS2 9.00 9 10.80 12 M M M NA NA 975.1 NA NA M NA NA NA NA
2019/11/11 07:26:01 AWS2 9.26 10 10.80 12 M M M NA NA 975.1 NA NA M NA NA NA NA
2019/11/11 07:27:01 AWS2 9.08 8 10.80 12 M M M NA NA 973.5 NA NA M NA NA NA NA
2019/11/11 07:28:01 AWS2 9.00 8 10.80 12 M M M NA NA 975.0 NA NA M NA NA NA NA
2019/11/11 07:29:01 AWS2 8.93 7 10.80 12 M M M NA NA 974.5 NA NA M NA NA NA NA
2019/11/11 07:30:01 AWS2 8.94 8 10.44 5 M M M NA NA 975.0 NA NA M NA NA NA NA
2019/11/11 07:31:02 AWS2 9.23 8 10.44 5 M M M NA NA 975.5 NA NA M NA NA NA NA
2019/11/11 07:32:01 AWS2 9.02 7 10.44 5 M M M NA NA 975.8 NA NA M NA NA NA NA
2019/11/11 07:33:02 AWS2 9.16 6 10.55 4 M M M NA NA 973.9 NA NA M NA NA NA NA
2019/11/11 07:34:00 AWS2 9.42 7 10.55 4 M M M NA NA 974.8 NA NA M NA NA NA NA
2019/11/11 07:35:01 AWS2 9.40 8 10.55 17 M M M NA NA 975.2 NA NA M NA NA NA NA
2019/11/11 07:36:01 AWS2 9.58 10 10.55 17 M M M NA NA 974.4 NA NA M NA NA NA NA
2019/11/11 07:37:00 AWS2 9.75 11 10.55 17 M M M NA NA 973.9 NA NA M NA NA NA NA
2019/11/11 07:38:01 AWS2 9.74 8 10.55 17 M M M NA NA 975.7 NA NA M NA NA NA NA
2019/11/11 07:39:01 AWS2 9.83 7 10.85 7 M M M NA NA 975.1 NA NA M NA NA NA NA
2019/11/11 07:40:01 AWS2 9.70 8 10.85 7 M M M NA NA 975.9 NA NA M NA NA NA NA
2019/11/11 07:41:01 AWS2 9.03 6 10.85 7 M M M NA NA 974.4 NA NA M NA NA NA NA
2019/11/11 07:42:01 AWS2 8.78 4 10.85 7 M M M NA NA 975.8 NA NA M NA NA NA NA
2019/11/11 07:43:01 AWS2 8.92 4 10.85 7 M M M NA NA 975.0 NA NA M NA NA NA NA
2019/11/11 07:44:01 AWS2 8.84 4 10.85 7 M M M NA NA 974.9 NA NA M NA NA NA NA
2019/11/11 07:45:00 AWS2 8.87 4 10.85 7 M M M NA NA 975.8 NA NA M NA NA NA NA
2019/11/11 07:46:01 AWS2 8.80 5 10.85 7 M M M NA NA 974.5 NA NA M NA NA NA NA
2019/11/11 07:47:01 AWS2 8.64 5 10.85 7 M M M NA NA 975.0 NA NA M NA NA NA NA
2019/11/11 07:48:01 AWS2 8.56 5 10.85 7 M M M NA NA 975.7 NA NA M NA NA NA NA
2019/11/11 07:49:01 AWS2 8.63 8 10.34 15 M M M NA NA 975.6 NA NA M NA NA NA NA
2019/11/11 07:50:01 AWS2 8.92 8 10.08 1 M M M NA NA 976.7 NA NA M NA NA NA NA
2019/11/11 07:51:02 AWS2 9.04 6 10.29 10 M M M NA NA 976.2 NA NA M NA NA NA NA
2019/11/11 07:52:02 AWS2 8.75 5 10.29 10 M M M NA NA 975.5 NA NA M NA NA NA NA
2019/11/11 07:53:01 AWS2 8.96 5 11.01 4 M M M NA NA 975.2 NA NA M NA NA NA NA
2019/11/11 07:54:01 AWS2 9.30 6 11.01 4 M M M NA NA 975.5 NA NA M NA NA NA NA
2019/11/11 07:55:00 AWS2 9.01 6 11.01 4 M M M NA NA 975.3 NA NA M NA NA NA NA
2019/11/11 07:56:01 AWS2 9.07 9 11.01 4 M M M NA NA 974.1 NA NA M NA NA NA NA
2019/11/11 07:57:01 AWS2 9.36 11 11.01 4 M M M NA NA 975.6 NA NA M NA NA NA NA
2019/11/11 07:58:01 AWS2 9.60 10 11.01 4 M M M NA NA 974.8 NA NA M NA NA NA NA
2019/11/11 07:59:02 AWS2 9.81 10 11.01 4 M M M NA NA 974.6 NA NA M NA NA NA NA
2019/11/11 08:00:01 AWS2 9.53 11 11.01 4 M M M NA NA 974.1 NA NA M NA NA NA NA
2019/11/11 08:01:01 AWS2 8.94 10 11.01 4 M M M NA NA 975.2 NA NA M NA NA NA NA
2019/11/11 08:02:01 AWS2 9.06 9 11.01 4 M M M NA NA 975.7 NA NA M NA NA NA NA
2019/11/11 08:03:01 AWS2 9.21 8 10.80 9 M M M NA NA 975.5 NA NA M NA NA NA NA
2019/11/11 08:04:01 AWS2 8.67 8 10.80 9 M M M NA NA 975.8 NA NA M NA NA NA NA
2019/11/11 08:05:01 AWS2 8.58 9 10.80 9 M M M NA NA 975.2 NA NA M NA NA NA NA
2019/11/11 08:06:01 AWS2 8.89 7 10.80 9 M M M NA NA 975.5 NA NA M NA NA NA NA
2019/11/11 08:07:01 AWS2 8.74 7 10.80 9 M M M NA NA 975.9 NA NA M NA NA NA NA
2019/11/11 08:08:00 AWS2 8.61 6 10.80 9 M M M NA NA 976.0 NA NA M NA NA NA NA
2019/11/11 08:09:01 AWS2 9.06 5 10.03 15 M M M NA NA 974.8 NA NA M NA NA NA NA
2019/11/11 08:10:01 AWS2 9.46 7 10.34 4 M M M NA NA 975.4 NA NA M NA NA NA NA
2019/11/11 08:11:02 AWS2 9.64 7 10.70 7 M M M NA NA 975.8 NA NA M NA NA NA NA
2019/11/11 08:12:01 AWS2 9.68 5 10.70 7 M M M NA NA 975.7 NA NA M NA NA NA NA
2019/11/11 08:13:02 AWS2 9.40 6 10.70 7 M M M NA NA 975.7 NA NA M NA NA NA NA
2019/11/11 08:14:02 AWS2 9.35 9 10.70 7 M M M NA NA 974.9 NA NA M NA NA NA NA
2019/11/11 08:15:02 AWS2 9.34 10 10.70 7 M M M NA NA 975.4 NA NA M NA NA NA NA
2019/11/11 08:16:02 AWS2 9.51 10 10.70 7 M M M NA NA 975.3 NA NA M NA NA NA NA
2019/11/11 08:17:01 AWS2 9.62 10 10.70 7 M M M NA NA 975.0 NA NA M NA NA NA NA
2019/11/11 08:18:01 AWS2 9.58 8 10.70 7 M M M NA NA 974.7 NA NA M NA NA NA NA
2019/11/11 08:19:01 AWS2 9.56 7 10.70 7 M M M NA NA 975.4 NA NA M NA NA NA NA
2019/11/11 08:20:02 AWS2 9.90 6 10.85 6 M M M NA NA 974.4 NA NA M NA NA NA NA
2019/11/11 08:21:02 AWS2 9.91 5 10.85 6 M M M NA NA 974.0 NA NA M NA NA NA NA
2019/11/11 08:22:02 AWS2 9.63 7 10.85 6 M M M NA NA 974.4 NA NA M NA NA NA NA
2019/11/11 08:23:02 AWS2 9.60 10 10.85 6 M M M NA NA 974.9 NA NA M NA NA NA NA
2019/11/11 08:24:02 AWS2 9.16 8 10.85 6 M M M NA NA 974.9 NA NA M NA NA NA NA
2019/11/11 08:25:02 AWS2 9.08 6 10.85 6 M M M NA NA 974.4 NA NA M NA NA NA NA
2019/11/11 08:26:02 AWS2 9.35 6 10.85 6 M M M NA NA 974.7 NA NA M NA NA NA NA
2019/11/11 08:27:01 AWS2 9.56 6 10.85 6 M M M NA NA 974.5 NA NA M NA NA NA NA
2019/11/11 08:28:01 AWS2 9.91 7 11.47 6 M M M NA NA 974.4 NA NA M NA NA NA NA
2019/11/11 08:29:02 AWS2 10.41 10 11.47 6 M M M NA NA 973.8 NA NA M NA NA NA NA
2019/11/11 08:30:02 AWS2 10.50 8 11.47 6 M M M NA NA 974.2 NA NA M NA NA NA NA
2019/11/11 08:31:02 AWS2 10.32 7 11.47 6 M M M NA NA 974.4 NA NA M NA NA NA NA
2019/11/11 08:32:02 AWS2 10.11 10 11.47 6 M M M NA NA 972.7 NA NA M NA NA NA NA
2019/11/11 08:33:02 AWS2 10.13 11 11.47 6 M M M NA NA 973.5 NA NA M NA NA NA NA
2019/11/11 08:34:02 AWS2 9.87 13 11.47 6 M M M NA NA 974.2 NA NA M NA NA NA NA
2019/11/11 08:35:02 AWS2 9.18 11 11.47 6 M M M NA NA 974.2 NA NA M NA NA NA NA
2019/11/11 08:36:02 AWS2 8.90 9 11.47 6 M M M NA NA 975.0 NA NA M NA NA NA NA
2019/11/11 08:37:02 AWS2 9.31 11 11.47 6 M M M NA NA 974.8 NA NA M NA NA NA NA
2019/11/11 08:38:02 AWS2 9.71 11 11.16 9 M M M NA NA 974.0 NA NA M NA NA NA NA
2019/11/11 08:39:01 AWS2 9.68 10 10.91 6 M M M NA NA 974.9 NA NA M NA NA NA NA
2019/11/11 08:40:02 AWS2 9.65 11 10.80 8 M M M NA NA 974.0 NA NA M NA NA NA NA
2019/11/11 08:41:02 AWS2 9.49 11 10.80 8 M M M NA NA 973.6 NA NA M NA NA NA NA
2019/11/11 08:42:02 AWS2 9.42 10 10.80 8 M M M NA NA 975.0 NA NA M NA NA NA NA
2019/11/11 08:43:02 AWS2 9.30 10 10.80 8 M M M NA NA 973.0 NA NA M NA NA NA NA
2019/11/11 08:44:01 AWS2 9.13 8 10.75 6 M M M NA NA 974.0 NA NA M NA NA NA NA
2019/11/11 08:45:02 AWS2 8.98 7 10.75 6 M M M NA NA 974.3 NA NA M NA NA NA NA
2019/11/11 08:46:01 AWS2 8.71 7 10.75 6 M M M NA NA 974.7 NA NA M NA NA NA NA
2019/11/11 08:47:02 AWS2 8.88 9 10.75 6 M M M NA NA 974.0 NA NA M NA NA NA NA
2019/11/11 08:48:01 AWS2 9.21 10 10.75 6 M M M NA NA 973.2 NA NA M NA NA NA NA
2019/11/11 08:49:01 AWS2 9.36 10 10.24 8 M M M NA NA 973.4 NA NA M NA NA NA NA
2019/11/11 08:50:01 AWS2 9.23 11 10.19 9 M M M NA NA 973.9 NA NA M NA NA NA NA
2019/11/11 08:51:01 AWS2 9.45 11 10.34 10 M M M NA NA 973.4 NA NA M NA NA NA NA
2019/11/11 08:52:01 AWS2 9.81 10 10.34 10 M M M NA NA 974.2 NA NA M NA NA NA NA
2019/11/11 08:53:01 AWS2 9.29 9 10.34 10 M M M NA NA 974.2 NA NA M NA NA NA NA
2019/11/11 08:54:02 AWS2 9.15 10 10.34 10 M M M NA NA 973.8 NA NA M NA NA NA NA
2019/11/11 08:55:01 AWS2 9.47 11 10.55 8 M M M NA NA 972.6 NA NA M NA NA NA NA
2019/11/11 08:56:01 AWS2 9.31 9 10.55 8 M M M NA NA 972.9 NA NA M NA NA NA NA
2019/11/11 08:57:02 AWS2 9.57 9 10.65 15 M M M NA NA 973.9 NA NA M NA NA NA NA
2019/11/11 08:58:01 AWS2 9.75 11 10.65 15 M M M NA NA 973.2 NA NA M NA NA NA NA
2019/11/11 08:59:01 AWS2 9.55 12 10.80 6 M M M NA NA 973.5 NA NA M NA NA NA NA
2019/11/11 09:00:02 AWS2 9.78 11 10.80 22 M M M NA NA 972.9 NA NA M NA NA NA NA
2019/11/11 09:01:01 AWS2 9.75 9 10.80 22 M M M NA NA 973.8 NA NA M NA NA NA NA
2019/11/11 09:02:01 AWS2 9.75 8 10.80 22 M M M NA NA 973.4 NA NA M NA NA NA NA
2019/11/11 09:03:02 AWS2 10.02 7 10.80 22 M M M NA NA 972.7 NA NA M NA NA NA NA
2019/11/11 09:04:01 AWS2 10.20 8 11.16 4 M M M NA NA 972.2 NA NA M NA NA NA NA
2019/11/11 09:05:02 AWS2 10.08 9 11.16 4 M M M NA NA 973.4 NA NA M NA NA NA NA
2019/11/11 09:06:01 AWS2 9.63 8 11.16 4 M M M NA NA 973.4 NA NA M NA NA NA NA
2019/11/11 09:07:01 AWS2 9.64 8 11.16 4 M M M NA NA 973.1 NA NA M NA NA NA NA
2019/11/11 09:08:01 AWS2 9.78 4 11.16 4 M M M NA NA 973.5 NA NA M NA NA NA NA
2019/11/11 09:09:01 AWS2 9.49 4 11.16 4 M M M NA NA 973.6 NA NA M NA NA NA NA
2019/11/11 09:10:01 AWS2 9.66 7 11.16 4 M M M NA NA 972.6 NA NA M NA NA NA NA
2019/11/11 09:11:01 AWS2 9.93 7 11.47 7 M M M NA NA 972.5 NA NA M NA NA NA NA
2019/11/11 09:12:01 AWS2 9.92 6 11.47 7 M M M NA NA 973.2 NA NA M NA NA NA NA
2019/11/11 09:13:01 AWS2 10.36 6 11.47 7 M M M NA NA 974.0 NA NA M NA NA NA NA
2019/11/11 09:14:01 AWS2 10.37 7 11.47 7 M M M NA NA 972.9 NA NA M NA NA NA NA
2019/11/11 09:15:01 AWS2 9.89 7 11.47 7 M M M NA NA 972.7 NA NA M NA NA NA NA
2019/11/11 09:16:01 AWS2 9.54 8 11.47 7 M M M NA NA 973.2 NA NA M NA NA NA NA
2019/11/11 09:17:01 AWS2 9.08 10 11.47 7 M M M NA NA 972.8 NA NA M NA NA NA NA
2019/11/11 09:18:01 AWS2 8.95 9 11.47 7 M M M NA NA 972.8 NA NA M NA NA NA NA
2019/11/11 09:19:01 AWS2 9.24 10 11.47 7 M M M NA NA 972.5 NA NA M NA NA NA NA
2019/11/11 09:20:02 AWS2 9.72 11 11.47 7 M M M NA NA 972.3 NA NA M NA NA NA NA
2019/11/11 09:21:01 AWS2 9.79 9 11.37 9 M M M NA NA 972.5 NA NA M NA NA NA NA
2019/11/11 09:22:01 AWS2 9.71 9 11.37 9 M M M NA NA 972.5 NA NA M NA NA NA NA
2019/11/11 09:23:01 AWS2 9.73 11 11.01 15 M M M NA NA 972.8 NA NA M NA NA NA NA
2019/11/11 09:24:01 AWS2 9.67 11 10.85 12 M M M NA NA 972.6 NA NA M NA NA NA NA
2019/11/11 09:25:01 AWS2 9.95 10 10.85 12 M M M NA NA 972.3 NA NA M NA NA NA NA
2019/11/11 09:26:01 AWS2 10.08 12 10.96 5 M M M NA NA 972.4 NA NA M NA NA NA NA
2019/11/11 09:27:01 AWS2 9.89 13 10.96 5 M M M NA NA 972.1 NA NA M NA NA NA NA
2019/11/11 09:28:01 AWS2 10.03 12 10.96 5 M M M NA NA 971.6 NA NA M NA NA NA NA
2019/11/11 09:29:01 AWS2 10.00 11 10.96 5 M M M NA NA 972.5 NA NA M NA NA NA NA
2019/11/11 09:30:01 AWS2 9.67 10 10.96 5 M M M NA NA 972.1 NA NA M NA NA NA NA
2019/11/11 09:31:02 AWS2 10.16 9 11.06 10 M M M NA NA 972.1 NA NA M NA NA NA NA
2019/11/11 09:32:01 AWS2 10.19 8 11.06 10 M M M NA NA 972.4 NA NA M NA NA NA NA
2019/11/11 09:33:01 AWS2 9.38 9 11.06 10 M M M NA NA 971.8 NA NA M NA NA NA NA
2019/11/11 09:34:01 AWS2 9.35 11 11.06 10 M M M NA NA 971.8 NA NA M NA NA NA NA
2019/11/11 09:35:01 AWS2 9.47 7 11.06 10 M M M NA NA 972.0 NA NA M NA NA NA NA
2019/11/11 09:36:01 AWS2 9.51 7 11.06 10 M M M NA NA 971.7 NA NA M NA NA NA NA
2019/11/11 09:37:02 AWS2 9.82 9 11.11 7 M M M NA NA 971.7 NA NA M NA NA NA NA
2019/11/11 09:38:01 AWS2 9.54 8 11.11 7 M M M NA NA 971.4 NA NA M NA NA NA NA
2019/11/11 09:39:01 AWS2 9.24 9 11.11 7 M M M NA NA 971.3 NA NA M NA NA NA NA
2019/11/11 09:40:01 AWS2 10.08 8 11.37 8 M M M NA NA 971.3 NA NA M NA NA NA NA
2019/11/11 09:41:01 AWS2 10.45 10 11.37 8 M M M NA NA 972.1 NA NA M NA NA NA NA
2019/11/11 09:42:01 AWS2 10.20 11 11.37 8 M M M NA NA 971.0 NA NA M NA NA NA NA
2019/11/11 09:43:01 AWS2 10.27 9 11.37 8 M M M NA NA 971.4 NA NA M NA NA NA NA
2019/11/11 09:44:01 AWS2 10.04 7 11.37 8 M M M NA NA 971.0 NA NA M NA NA NA NA
2019/11/11 09:45:01 AWS2 10.05 7 11.47 17 M M M NA NA 970.5 NA NA M NA NA NA NA
2019/11/11 09:46:01 AWS2 9.84 3 11.47 17 M M M NA NA 971.7 NA NA M NA NA NA NA
2019/11/11 09:47:01 AWS2 9.41 358 11.47 17 M M M NA NA 971.2 NA NA M NA NA NA NA
2019/11/11 09:48:01 AWS2 9.60 3 11.47 17 M M M NA NA 971.9 NA NA M NA NA NA NA
2019/11/11 09:49:01 AWS2 9.45 5 11.47 17 M M M NA NA 971.4 NA NA M NA NA NA NA
2019/11/11 09:50:01 AWS2 9.21 4 11.47 17 M M M NA NA 971.5 NA NA M NA NA NA NA
2019/11/11 09:51:02 AWS2 9.42 5 11.47 17 M M M NA NA 971.4 NA NA M NA NA NA NA
2019/11/11 09:52:01 AWS2 9.38 5 11.47 17 M M M NA NA 971.1 NA NA M NA NA NA NA
2019/11/11 09:53:01 AWS2 9.45 5 11.47 17 M M M NA NA 972.2 NA NA M NA NA NA NA
2019/11/11 09:54:02 AWS2 9.45 6 11.47 17 M M M NA NA 971.5 NA NA M NA NA NA NA
2019/11/11 09:55:01 AWS2 9.80 7 11.32 9 M M M NA NA 971.3 NA NA M NA NA NA NA
2019/11/11 09:56:01 AWS2 10.42 5 11.32 9 M M M NA NA 971.4 NA NA M NA NA NA NA
2019/11/11 09:57:01 AWS2 10.43 3 11.32 9 M M M NA NA 971.2 NA NA M NA NA NA NA
2019/11/11 09:58:01 AWS2 10.27 4 11.32 9 M M M NA NA 970.8 NA NA M NA NA NA NA
2019/11/11 09:59:01 AWS2 10.29 4 11.32 9 M M M NA NA 970.3 NA NA M NA NA NA NA
2019/11/11 10:00:01 AWS2 10.32 2 11.32 9 M M M NA NA 970.8 NA NA M NA NA NA NA
2019/11/11 10:01:01 AWS2 10.12 3 11.32 2 M M M NA NA 971.9 NA NA M NA NA NA NA
2019/11/11 10:02:01 AWS2 10.38 4 11.32 2 M M M NA NA 971.5 NA NA M NA NA NA NA
2019/11/11 10:03:01 AWS2 10.28 5 11.32 2 M M M NA NA 972.7 NA NA M NA NA NA NA
2019/11/11 10:04:01 AWS2 10.32 5 11.68 6 M M M NA NA 973.0 NA NA M NA NA NA NA
2019/11/11 10:05:01 AWS2 10.93 5 11.78 5 M M M NA NA 971.0 NA NA M NA NA NA NA
2019/11/11 10:06:01 AWS2 10.80 6 11.78 5 M M M NA NA 973.0 NA NA M NA NA NA NA
2019/11/11 10:07:01 AWS2 10.15 5 11.78 5 M M M NA NA 974.3 NA NA M NA NA NA NA
2019/11/11 10:08:01 AWS2 9.80 4 11.78 5 M M M NA NA 973.7 NA NA M NA NA NA NA
2019/11/11 10:09:01 AWS2 9.85 4 11.78 5 M M M NA NA 973.3 NA NA M NA NA NA NA
2019/11/11 10:10:01 AWS2 9.54 3 11.78 5 M M M NA NA 973.4 NA NA M NA NA NA NA
2019/11/11 10:11:01 AWS2 9.55 4 11.78 5 M M M NA NA 973.9 NA NA M NA NA NA NA
2019/11/11 10:12:01 AWS2 10.06 6 11.78 5 M M M NA NA 973.0 NA NA M NA NA NA NA
2019/11/11 10:13:01 AWS2 10.20 4 11.78 5 M M M NA NA 972.3 NA NA M NA NA NA NA
2019/11/11 10:14:01 AWS2 10.30 2 11.78 5 M M M NA NA 973.5 NA NA M NA NA NA NA
2019/11/11 10:15:01 AWS2 10.26 3 11.32 9 M M M NA NA 973.8 NA NA M NA NA NA NA
2019/11/11 10:16:00 AWS2 10.44 2 11.32 9 M M M NA NA 972.0 NA NA M NA NA NA NA
2019/11/11 10:17:01 AWS2 10.94 2 11.99 3 M M M NA NA 972.9 NA NA M NA NA NA NA
2019/11/11 10:18:01 AWS2 10.78 6 11.99 3 M M M NA NA 972.7 NA NA M NA NA NA NA
2019/11/11 10:19:00 AWS2 10.00 3 11.99 3 M M M NA NA 972.8 NA NA M NA NA NA NA
2019/11/11 10:20:01 AWS2 9.68 1 11.99 3 M M M NA NA 973.3 NA NA M NA NA NA NA
2019/11/11 10:21:00 AWS2 10.03 7 11.99 3 M M M NA NA 973.2 NA NA M NA NA NA NA
2019/11/11 10:22:01 AWS2 9.84 6 11.99 3 M M M NA NA 973.4 NA NA M NA NA NA NA
2019/11/11 10:23:01 AWS2 9.81 4 11.99 3 M M M NA NA 972.3 NA NA M NA NA NA NA
2019/11/11 10:24:01 AWS2 10.21 5 11.99 3 M M M NA NA 973.2 NA NA M NA NA NA NA
2019/11/11 10:25:01 AWS2 10.36 5 11.99 3 M M M NA NA 972.7 NA NA M NA NA NA NA
2019/11/11 10:26:01 AWS2 10.75 4 12.09 4 M M M NA NA 972.7 NA NA M NA NA NA NA
2019/11/11 10:27:01 AWS2 10.80 3 12.09 4 M M M NA NA 972.8 NA NA M NA NA NA NA
2019/11/11 10:28:01 AWS2 10.69 0 12.60 6 M M M NA NA 972.6 NA NA M NA NA NA NA
2019/11/11 10:29:01 AWS2 10.97 1 12.60 6 M M M NA NA 972.6 NA NA M NA NA NA NA
2019/11/11 10:30:01 AWS2 10.77 4 12.60 6 M M M NA NA 972.4 NA NA M NA NA NA NA
2019/11/11 10:31:02 AWS2 10.71 5 12.60 6 M M M NA NA 972.2 NA NA M NA NA NA NA
2019/11/11 10:32:02 AWS2 10.47 4 12.60 6 M M M NA NA 973.6 NA NA M NA NA NA NA
2019/11/11 10:33:01 AWS2 10.60 3 12.60 6 M M M NA NA 971.9 NA NA M NA NA NA NA
2019/11/11 10:34:01 AWS2 11.19 4 12.91 6 M M M NA NA 972.8 NA NA M NA NA NA NA
2019/11/11 10:35:01 AWS2 11.10 6 12.91 6 M M M NA NA 972.5 NA NA M NA NA NA NA
2019/11/11 10:36:01 AWS2 10.93 4 12.91 6 M M M NA NA 971.2 NA NA M NA NA NA NA
2019/11/11 10:37:01 AWS2 11.20 4 12.91 6 M M M NA NA 972.7 NA NA M NA NA NA NA
2019/11/11 10:38:01 AWS2 11.46 3 12.91 6 M M M NA NA 972.2 NA NA M NA NA NA NA
2019/11/11 10:39:01 AWS2 11.06 4 12.91 6 M M M NA NA 973.2 NA NA M NA NA NA NA
2019/11/11 10:40:01 AWS2 10.61 4 12.91 6 M M M NA NA 973.1 NA NA M NA NA NA NA
2019/11/11 10:41:01 AWS2 10.11 360 12.91 6 M M M NA NA 972.4 NA NA M NA NA NA NA
2019/11/11 10:42:00 AWS2 9.96 4 12.91 6 M M M NA NA 972.6 NA NA M NA NA NA NA
2019/11/11 10:43:02 AWS2 10.52 5 12.91 6 M M M NA NA 972.5 NA NA M NA NA NA NA
2019/11/11 10:44:01 AWS2 10.73 1 12.66 2 M M M NA NA 971.9 NA NA M NA NA NA NA
2019/11/11 10:45:01 AWS2 10.78 1 12.66 2 M M M NA NA 973.0 NA NA M NA NA NA NA
2019/11/11 10:46:01 AWS2 10.73 4 12.66 2 M M M NA NA 972.8 NA NA M NA NA NA NA
2019/11/11 10:47:01 AWS2 10.40 5 12.66 2 M M M NA NA 972.6 NA NA M NA NA NA NA
2019/11/11 10:48:02 AWS2 10.12 6 12.14 1 M M M NA NA 970.9 NA NA M NA NA NA NA
2019/11/11 10:49:01 AWS2 10.31 1 12.14 1 M M M NA NA 972.1 NA NA M NA NA NA NA
2019/11/11 10:50:01 AWS2 10.06 360 12.14 1 M M M NA NA 973.6 NA NA M NA NA NA NA
2019/11/11 10:51:02 AWS2 9.50 1 12.14 1 M M M NA NA 971.9 NA NA M NA NA NA NA
2019/11/11 10:52:01 AWS2 9.67 1 12.14 1 M M M NA NA 971.6 NA NA M NA NA NA NA
2019/11/11 10:53:01 AWS2 10.13 3 11.99 3 M M M NA NA 972.1 NA NA M NA NA NA NA
2019/11/11 10:54:01 AWS2 10.71 360 11.99 10 M M M NA NA 971.9 NA NA M NA NA NA NA
2019/11/11 10:55:01 AWS2 10.69 1 11.99 10 M M M NA NA 972.1 NA NA M NA NA NA NA
2019/11/11 10:56:01 AWS2 10.24 360 11.99 10 M M M NA NA 971.7 NA NA M NA NA NA NA
2019/11/11 10:57:01 AWS2 10.37 358 11.99 10 M M M NA NA 971.2 NA NA M NA NA NA NA
2019/11/11 10:58:01 AWS2 10.47 359 11.99 10 M M M NA NA 973.0 NA NA M NA NA NA NA
2019/11/11 10:59:02 AWS2 10.46 353 11.99 10 M M M NA NA 973.1 NA NA M NA NA NA NA
2019/11/11 11:00:02 AWS2 10.75 349 11.99 10 M M M NA NA 971.0 NA NA M NA NA NA NA
2019/11/11 11:01:01 AWS2 10.56 357 11.99 10 M M M NA NA 970.9 NA NA M NA NA NA NA
2019/11/11 11:02:01 AWS2 10.31 2 11.99 10 M M M NA NA 972.5 NA NA M NA NA NA NA
2019/11/11 11:03:01 AWS2 10.04 359 11.99 10 M M M NA NA 971.9 NA NA M NA NA NA NA
2019/11/11 11:04:02 AWS2 9.90 358 11.57 1 M M M NA NA 972.7 NA NA M NA NA NA NA
2019/11/11 11:05:01 AWS2 9.67 356 11.57 1 M M M NA NA 971.9 NA NA M NA NA NA NA
2019/11/11 11:06:01 AWS2 9.53 356 11.57 1 M M M NA NA 971.9 NA NA M NA NA NA NA
2019/11/11 11:07:01 AWS2 9.94 356 11.57 1 M M M NA NA 972.0 NA NA M NA NA NA NA
2019/11/11 11:08:01 AWS2 9.77 355 11.57 1 M M M NA NA 972.0 NA NA M NA NA NA NA
2019/11/11 11:09:01 AWS2 9.79 350 11.63 355 M M M NA NA 971.1 NA NA M NA NA NA NA
2019/11/11 11:10:01 AWS2 9.72 345 11.63 355 M M M NA NA 972.1 NA NA M NA NA NA NA
2019/11/11 11:11:01 AWS2 9.01 352 11.63 355 M M M NA NA 970.3 NA NA M NA NA NA NA
2019/11/11 11:12:01 AWS2 8.78 5 11.63 355 M M M NA NA 971.6 NA NA M NA NA NA NA
2019/11/11 11:13:01 AWS2 8.54 4 11.63 355 M M M NA NA 972.3 NA NA M NA NA NA NA
2019/11/11 11:14:01 AWS2 8.67 355 11.63 355 M M M NA NA 972.2 NA NA M NA NA NA NA
2019/11/11 11:15:01 AWS2 9.09 351 11.63 355 M M M NA NA 970.8 NA NA M NA NA NA NA
2019/11/11 11:16:01 AWS2 9.06 350 11.63 355 M M M NA NA 971.5 NA NA M NA NA NA NA
2019/11/11 11:17:01 AWS2 8.71 356 11.63 355 M M M NA NA 971.9 NA NA M NA NA NA NA
2019/11/11 11:18:01 AWS2 8.17 0 11.63 355 M M M NA NA 971.0 NA NA M NA NA NA NA
2019/11/11 11:19:01 AWS2 7.17 354 10.80 349 M M M NA NA 971.5 NA NA M NA NA NA NA
2019/11/11 11:20:02 AWS2 6.09 343 10.80 349 M M M NA NA 971.4 NA NA M NA NA NA NA
2019/11/11 11:21:01 AWS2 5.88 341 10.80 349 M M M NA NA 971.0 NA NA M NA NA NA NA
2019/11/11 11:22:01 AWS2 5.87 335 10.80 349 M M M NA NA 972.7 NA NA M NA NA NA NA
2019/11/11 11:23:02 AWS2 5.65 329 10.80 349 M M M NA NA 972.4 NA NA M NA NA NA NA
2019/11/11 11:24:01 AWS2 5.11 324 10.80 349 M M M NA NA 972.6 NA NA M NA NA NA NA
2019/11/11 11:25:01 AWS2 4.90 313 10.80 349 M M M NA NA 972.5 NA NA M NA NA NA NA
2019/11/11 11:26:02 AWS2 5.21 317 9.41 3 M M M NA NA 973.0 NA NA M NA NA NA NA
2019/11/11 11:27:02 AWS2 5.21 316 9.05 1 M M M NA NA 971.9 NA NA M NA NA NA NA
2019/11/11 11:28:01 AWS2 5.22 312 8.90 345 M M M NA NA 973.2 NA NA M NA NA NA NA
2019/11/11 11:29:02 AWS2 5.61 313 8.90 345 M M M NA NA 973.2 NA NA M NA NA NA NA
2019/11/11 11:30:01 AWS2 5.85 316 8.90 345 M M M NA NA 973.1 NA NA M NA NA NA NA
2019/11/11 11:31:02 AWS2 6.25 321 8.90 345 M M M NA NA 973.6 NA NA M NA NA NA NA
2019/11/11 11:32:01 AWS2 6.56 320 7.67 327 M M M NA NA 972.4 NA NA M NA NA NA NA
2019/11/11 11:33:01 AWS2 6.65 320 7.67 327 M M M NA NA 972.6 NA NA M NA NA NA NA
2019/11/11 11:34:01 AWS2 6.78 326 7.67 327 M M M NA NA 972.2 NA NA M NA NA NA NA
2019/11/11 11:35:01 AWS2 6.39 325 7.67 327 M M M NA NA 972.7 NA NA M NA NA NA NA
2019/11/11 11:36:01 AWS2 6.15 322 7.67 327 M M M NA NA 972.5 NA NA M NA NA NA NA
2019/11/11 11:37:02 AWS2 6.32 322 7.67 327 M M M NA NA 973.1 NA NA M NA NA NA NA
2019/11/11 11:38:01 AWS2 6.42 324 7.67 327 M M M NA NA 973.2 NA NA M NA NA NA NA
2019/11/11 11:39:01 AWS2 6.37 324 7.56 324 M M M NA NA 973.1 NA NA M NA NA NA NA
2019/11/11 11:40:00 AWS2 6.22 321 7.56 324 M M M NA NA 972.9 NA NA M NA NA NA NA
2019/11/11 11:41:01 AWS2 6.13 318 7.56 324 M M M NA NA 973.0 NA NA M NA NA NA NA
2019/11/11 11:42:00 AWS2 6.06 318 7.56 324 M M M NA NA 972.5 NA NA M NA NA NA NA
2019/11/11 11:43:01 AWS2 6.11 317 7.51 329 M M M NA NA 972.3 NA NA M NA NA NA NA
2019/11/11 11:44:01 AWS2 6.08 313 7.15 323 M M M NA NA 972.7 NA NA M NA NA NA NA
2019/11/11 11:45:01 AWS2 6.27 309 7.15 323 M M M NA NA 973.1 NA NA M NA NA NA NA
2019/11/11 11:46:01 AWS2 6.54 307 7.15 323 M M M NA NA 973.1 NA NA M NA NA NA NA
2019/11/11 11:47:01 AWS2 6.43 305 7.15 323 M M M NA NA 972.3 NA NA M NA NA NA NA
2019/11/11 11:48:02 AWS2 6.22 305 7.10 306 M M M NA NA 973.4 NA NA M NA NA NA NA
2019/11/11 11:49:01 AWS2 6.24 303 7.10 306 M M M NA NA 972.7 NA NA M NA NA NA NA
2019/11/11 11:50:00 AWS2 6.60 301 7.15 292 M M M NA NA 973.0 NA NA M NA NA NA NA
2019/11/11 11:51:01 AWS2 6.81 302 7.41 301 M M M NA NA 972.7 NA NA M NA NA NA NA
2019/11/11 11:52:01 AWS2 6.92 299 7.82 296 M M M NA NA 972.9 NA NA M NA NA NA NA
2019/11/11 11:53:01 AWS2 6.96 298 7.82 296 M M M NA NA 972.7 NA NA M NA NA NA NA
2019/11/11 11:54:01 AWS2 7.01 298 7.92 291 M M M NA NA 972.7 NA NA M NA NA NA NA
2019/11/11 11:55:01 AWS2 7.10 295 7.92 291 M M M NA NA 971.9 NA NA M NA NA NA NA
2019/11/11 11:56:02 AWS2 7.40 295 8.64 291 M M M NA NA 972.8 NA NA M NA NA NA NA
2019/11/11 11:57:01 AWS2 7.57 295 8.64 291 M M M NA NA 972.4 NA NA M NA NA NA NA
2019/11/11 11:58:01 AWS2 7.30 293 8.64 291 M M M NA NA 971.4 NA NA M NA NA NA NA
2019/11/11 11:59:01 AWS2 7.14 294 8.64 291 M M M NA NA 972.2 NA NA M NA NA NA NA
2019/11/11 12:00:02 AWS2 7.12 295 8.64 291 M M M NA NA 972.0 NA NA M NA NA NA NA
2019/11/11 12:01:02 AWS2 6.84 294 8.64 291 M M M NA NA 972.0 NA NA M NA NA NA NA
2019/11/11 12:02:01 AWS2 6.38 291 8.64 291 M M M NA NA 973.0 NA NA M NA NA NA NA
2019/11/11 12:03:01 AWS2 6.39 288 8.64 291 M M M NA NA 972.2 NA NA M NA NA NA NA
2019/11/11 12:04:02 AWS2 6.51 287 8.64 291 M M M NA NA 972.9 NA NA M NA NA NA NA
2019/11/11 12:05:01 AWS2 6.50 286 8.64 291 M M M NA NA 972.4 NA NA M NA NA NA NA
2019/11/11 12:06:01 AWS2 6.21 285 7.92 290 M M M NA NA 972.4 NA NA M NA NA NA NA
2019/11/11 12:07:01 AWS2 6.25 285 7.77 293 M M M NA NA 971.7 NA NA M NA NA NA NA
2019/11/11 12:08:01 AWS2 6.49 285 7.56 299 M M M NA NA 972.5 NA NA M NA NA NA NA
2019/11/11 12:09:01 AWS2 6.37 284 7.56 299 M M M NA NA 972.8 NA NA M NA NA NA NA
2019/11/11 12:10:01 AWS2 6.70 282 7.72 293 M M M NA NA 971.9 NA NA M NA NA NA NA
2019/11/11 12:11:02 AWS2 7.18 284 7.82 287 M M M NA NA 972.4 NA NA M NA NA NA NA
2019/11/11 12:12:01 AWS2 7.37 282 8.39 278 M M M NA NA 971.5 NA NA M NA NA NA NA
2019/11/11 12:13:01 AWS2 7.40 279 8.39 278 M M M NA NA 971.7 NA NA M NA NA NA NA
2019/11/11 12:14:01 AWS2 7.39 281 8.39 278 M M M NA NA 972.0 NA NA M NA NA NA NA
2019/11/11 12:15:02 AWS2 7.28 281 8.39 278 M M M NA NA 972.0 NA NA M NA NA NA NA
2019/11/11 12:16:01 AWS2 6.88 280 8.39 278 M M M NA NA 972.3 NA NA M NA NA NA NA
2019/11/11 12:17:01 AWS2 7.10 281 8.54 282 M M M NA NA 971.1 NA NA M NA NA NA NA
2019/11/11 12:18:01 AWS2 7.37 281 8.54 282 M M M NA NA 971.5 NA NA M NA NA NA NA
2019/11/11 12:19:01 AWS2 7.25 279 8.54 282 M M M NA NA 973.3 NA NA M NA NA NA NA
2019/11/11 12:20:01 AWS2 7.29 279 8.54 282 M M M NA NA 971.7 NA NA M NA NA NA NA
2019/11/11 12:21:01 AWS2 7.66 280 8.85 276 M M M NA NA 972.7 NA NA M NA NA NA NA
2019/11/11 12:22:01 AWS2 8.03 281 9.21 282 M M M NA NA 972.1 NA NA M NA NA NA NA
2019/11/11 12:23:01 AWS2 7.70 282 9.21 282 M M M NA NA 972.3 NA NA M NA NA NA NA
2019/11/11 12:24:01 AWS2 7.85 279 9.21 282 M M M NA NA 971.9 NA NA M NA NA NA NA
2019/11/11 12:25:01 AWS2 8.07 278 9.21 282 M M M NA NA 972.8 NA NA M NA NA NA NA
2019/11/11 12:26:01 AWS2 7.94 279 9.21 282 M M M NA NA 972.1 NA NA M NA NA NA NA
2019/11/11 12:27:01 AWS2 7.85 278 9.21 282 M M M NA NA 972.3 NA NA M NA NA NA NA
2019/11/11 12:28:01 AWS2 7.25 275 9.21 282 M M M NA NA 972.8 NA NA M NA NA NA NA
2019/11/11 12:29:01 AWS2 7.73 276 10.24 276 M M M NA NA 972.2 NA NA M NA NA NA NA
2019/11/11 12:30:01 AWS2 8.54 278 10.24 276 M M M NA NA 972.1 NA NA M NA NA NA NA
2019/11/11 12:31:02 AWS2 8.14 275 10.24 276 M M M NA NA 972.1 NA NA M NA NA NA NA
2019/11/11 12:32:01 AWS2 7.88 276 10.24 276 M M M NA NA 972.5 NA NA M NA NA NA NA
2019/11/11 12:33:01 AWS2 8.16 277 10.24 276 M M M NA NA 972.8 NA NA M NA NA NA NA
2019/11/11 12:34:01 AWS2 8.30 278 10.24 276 M M M NA NA 973.6 NA NA M NA NA NA NA
2019/11/11 12:35:01 AWS2 8.10 279 10.24 276 M M M NA NA 973.7 NA NA M NA NA NA NA
2019/11/11 12:36:01 AWS2 8.02 281 10.24 276 M M M NA NA 973.6 NA NA M NA NA NA NA
2019/11/11 12:37:01 AWS2 8.02 281 10.24 276 M M M NA NA 973.1 NA NA M NA NA NA NA
2019/11/11 12:38:00 AWS2 7.87 278 10.24 276 M M M NA NA 973.6 NA NA M NA NA NA NA
2019/11/11 12:39:01 AWS2 7.71 278 9.77 281 M M M NA NA 973.8 NA NA M NA NA NA NA
2019/11/11 12:40:01 AWS2 7.62 281 9.77 281 M M M NA NA 973.1 NA NA M NA NA NA NA
2019/11/11 12:41:01 AWS2 7.43 281 9.77 281 M M M NA NA 973.9 NA NA M NA NA NA NA
2019/11/11 12:42:01 AWS2 7.43 280 9.77 281 M M M NA NA 973.9 NA NA M NA NA NA NA
2019/11/11 12:43:00 AWS2 7.67 281 9.77 281 M M M NA NA 973.5 NA NA M NA NA NA NA
2019/11/11 12:44:01 AWS2 7.47 281 9.77 281 M M M NA NA 973.4 NA NA M NA NA NA NA
2019/11/11 12:45:01 AWS2 7.18 280 9.77 281 M M M NA NA 973.9 NA NA M NA NA NA NA
2019/11/11 12:46:01 AWS2 7.17 280 9.31 276 M M M NA NA 973.1 NA NA M NA NA NA NA
2019/11/11 12:47:01 AWS2 7.01 280 9.31 276 M M M NA NA 973.9 NA NA M NA NA NA NA
2019/11/11 12:48:00 AWS2 6.71 281 9.31 276 M M M NA NA 973.9 NA NA M NA NA NA NA
2019/11/11 12:49:01 AWS2 6.87 284 9.31 276 M M M NA NA 973.8 NA NA M NA NA NA NA
2019/11/11 12:50:01 AWS2 6.82 286 9.31 276 M M M NA NA 974.1 NA NA M NA NA NA NA
2019/11/11 12:51:01 AWS2 6.56 286 9.31 276 M M M NA NA 974.2 NA NA M NA NA NA NA
2019/11/11 12:52:01 AWS2 6.71 283 9.31 276 M M M NA NA 974.0 NA NA M NA NA NA NA
2019/11/11 12:53:01 AWS2 6.71 280 8.23 281 M M M NA NA 973.5 NA NA M NA NA NA NA
2019/11/11 12:54:02 AWS2 6.86 280 8.23 281 M M M NA NA 974.1 NA NA M NA NA NA NA
2019/11/11 12:55:01 AWS2 6.97 281 8.23 281 M M M NA NA 973.3 NA NA M NA NA NA NA
2019/11/11 12:56:00 AWS2 7.11 281 8.95 281 M M M NA NA 973.8 NA NA M NA NA NA NA
2019/11/11 12:57:01 AWS2 7.01 283 8.95 281 M M M NA NA 973.9 NA NA M NA NA NA NA
2019/11/11 12:58:01 AWS2 6.97 283 8.95 281 M M M NA NA 973.8 NA NA M NA NA NA NA
2019/11/11 12:59:01 AWS2 7.37 280 8.95 281 M M M NA NA 974.0 NA NA M NA NA NA NA
2019/11/11 13:00:01 AWS2 7.36 283 8.95 281 M M M NA NA 974.3 NA NA M NA NA NA NA
2019/11/11 13:01:01 AWS2 7.14 282 8.95 281 M M M NA NA 973.7 NA NA M NA NA NA NA
2019/11/11 13:02:01 AWS2 7.05 282 8.95 281 M M M NA NA 973.7 NA NA M NA NA NA NA
2019/11/11 13:03:01 AWS2 6.87 284 8.95 281 M M M NA NA 973.1 NA NA M NA NA NA NA
2019/11/11 13:04:02 AWS2 6.52 286 8.95 281 M M M NA NA 974.1 NA NA M NA NA NA NA
2019/11/11 13:05:00 AWS2 6.22 285 8.95 281 M M M NA NA 974.0 NA NA M NA NA NA NA
2019/11/11 13:06:01 AWS2 6.29 287 8.23 280 M M M NA NA 973.9 NA NA M NA NA NA NA
2019/11/11 13:07:01 AWS2 6.39 286 7.82 284 M M M NA NA 974.1 NA NA M NA NA NA NA
2019/11/11 13:08:01 AWS2 6.15 286 7.82 284 M M M NA NA 973.8 NA NA M NA NA NA NA
2019/11/11 13:09:00 AWS2 6.01 288 7.77 284 M M M NA NA 973.6 NA NA M NA NA NA NA
2019/11/11 13:10:00 AWS2 5.94 289 7.77 284 M M M NA NA 973.9 NA NA M NA NA NA NA
2019/11/11 13:11:01 AWS2 5.64 290 7.77 284 M M M NA NA 974.3 NA NA M NA NA NA NA
2019/11/11 13:12:01 AWS2 5.97 289 7.67 273 M M M NA NA 973.6 NA NA M NA NA NA NA
2019/11/11 13:13:01 AWS2 6.28 289 7.20 286 M M M NA NA 974.3 NA NA M NA NA NA NA
2019/11/11 13:14:01 AWS2 5.93 291 7.20 286 M M M NA NA 974.1 NA NA M NA NA NA NA
2019/11/11 13:15:00 AWS2 5.80 292 7.20 286 M M M NA NA 973.9 NA NA M NA NA NA NA
2019/11/11 13:16:02 AWS2 5.95 294 7.20 286 M M M NA NA 973.8 NA NA M NA NA NA NA
2019/11/11 13:17:01 AWS2 5.95 297 7.20 286 M M M NA NA 974.0 NA NA M NA NA NA NA
2019/11/11 13:18:01 AWS2 5.89 296 7.20 286 M M M NA NA 973.8 NA NA M NA NA NA NA
2019/11/11 13:19:01 AWS2 5.92 296 7.20 286 M M M NA NA 974.0 NA NA M NA NA NA NA
2019/11/11 13:20:01 AWS2 5.96 294 7.20 286 M M M NA NA 974.0 NA NA M NA NA NA NA
2019/11/11 13:21:01 AWS2 6.15 295 7.20 286 M M M NA NA 973.2 NA NA M NA NA NA NA
2019/11/11 13:22:01 AWS2 6.20 297 6.84 299 M M M NA NA 973.3 NA NA M NA NA NA NA
2019/11/11 13:23:01 AWS2 6.36 298 7.00 298 M M M NA NA 973.8 NA NA M NA NA NA NA
2019/11/11 13:24:01 AWS2 6.60 298 7.05 302 M M M NA NA 972.6 NA NA M NA NA NA NA
2019/11/11 13:25:01 AWS2 6.79 297 7.25 295 M M M NA NA 973.1 NA NA M NA NA NA NA
2019/11/11 13:26:02 AWS2 6.62 297 7.25 295 M M M NA NA 973.5 NA NA M NA NA NA NA
2019/11/11 13:27:02 AWS2 6.62 297 7.25 295 M M M NA NA 973.4 NA NA M NA NA NA NA
2019/11/11 13:28:01 AWS2 6.62 294 7.25 295 M M M NA NA 973.2 NA NA M NA NA NA NA
2019/11/11 13:29:02 AWS2 6.33 292 7.36 291 M M M NA NA 973.0 NA NA M NA NA NA NA
2019/11/11 13:30:01 AWS2 6.46 290 7.36 291 M M M NA NA 973.9 NA NA M NA NA NA NA
2019/11/11 13:31:03 AWS2 6.51 291 7.36 291 M M M NA NA 973.3 NA NA M NA NA NA NA
2019/11/11 13:32:02 AWS2 6.34 290 7.36 291 M M M NA NA 973.5 NA NA M NA NA NA NA
2019/11/11 13:33:01 AWS2 6.17 290 7.36 291 M M M NA NA 973.4 NA NA M NA NA NA NA
2019/11/11 13:34:01 AWS2 6.49 288 7.56 279 M M M NA NA 973.3 NA NA M NA NA NA NA
2019/11/11 13:35:01 AWS2 6.64 284 7.61 280 M M M NA NA 973.3 NA NA M NA NA NA NA
2019/11/11 13:36:01 AWS2 6.32 285 7.61 280 M M M NA NA 973.0 NA NA M NA NA NA NA
2019/11/11 13:37:01 AWS2 6.31 287 8.54 287 M M M NA NA 973.4 NA NA M NA NA NA NA
2019/11/11 13:38:01 AWS2 7.33 287 9.05 289 M M M NA NA 973.3 NA NA M NA NA NA NA
2019/11/11 13:39:01 AWS2 7.80 282 9.05 289 M M M NA NA 974.3 NA NA M NA NA NA NA
2019/11/11 13:40:01 AWS2 7.45 280 9.05 289 M M M NA NA 974.4 NA NA M NA NA NA NA
2019/11/11 13:41:01 AWS2 7.42 282 9.05 289 M M M NA NA 974.0 NA NA M NA NA NA NA
2019/11/11 13:42:01 AWS2 7.27 281 9.05 289 M M M NA NA 974.1 NA NA M NA NA NA NA
2019/11/11 13:43:01 AWS2 7.73 279 9.31 276 M M M NA NA 974.3 NA NA M NA NA NA NA
2019/11/11 13:44:01 AWS2 8.37 280 10.34 280 M M M NA NA 974.5 NA NA M NA NA NA NA
2019/11/11 13:45:01 AWS2 7.86 281 10.34 280 M M M NA NA 974.0 NA NA M NA NA NA NA
2019/11/11 13:46:01 AWS2 7.43 280 10.34 280 M M M NA NA 974.4 NA NA M NA NA NA NA
2019/11/11 13:47:02 AWS2 7.75 279 10.34 280 M M M NA NA 974.1 NA NA M NA NA NA NA
2019/11/11 13:48:01 AWS2 7.51 276 10.34 280 M M M NA NA 974.0 NA NA M NA NA NA NA
2019/11/11 13:49:01 AWS2 7.20 278 10.34 280 M M M NA NA 974.0 NA NA M NA NA NA NA
2019/11/11 13:50:00 AWS2 7.67 277 10.34 280 M M M NA NA 974.2 NA NA M NA NA NA NA
2019/11/11 13:51:01 AWS2 8.33 275 10.34 280 M M M NA NA 974.1 NA NA M NA NA NA NA
2019/11/11 13:52:01 AWS2 8.19 279 10.34 280 M M M NA NA 973.4 NA NA M NA NA NA NA
2019/11/11 13:53:01 AWS2 7.47 280 10.34 280 M M M NA NA 973.7 NA NA M NA NA NA NA
2019/11/11 13:54:01 AWS2 7.03 281 9.72 285 M M M NA NA 974.3 NA NA M NA NA NA NA
2019/11/11 13:55:01 AWS2 7.49 280 9.72 285 M M M NA NA 974.4 NA NA M NA NA NA NA
2019/11/11 13:56:02 AWS2 8.03 278 9.72 285 M M M NA NA 973.5 NA NA M NA NA NA NA
2019/11/11 13:57:01 AWS2 8.56 278 9.98 276 M M M NA NA 973.9 NA NA M NA NA NA NA
2019/11/11 13:58:01 AWS2 8.43 277 9.98 276 M M M NA NA 974.4 NA NA M NA NA NA NA
2019/11/11 13:59:02 AWS2 7.90 276 9.98 276 M M M NA NA 974.1 NA NA M NA NA NA NA
2019/11/11 14:00:02 AWS2 8.21 278 9.98 276 M M M NA NA 973.6 NA NA M NA NA NA NA
2019/11/11 14:01:01 AWS2 8.54 280 9.98 276 M M M NA NA 974.0 NA NA M NA NA NA NA
2019/11/11 14:02:00 AWS2 8.20 280 9.98 276 M M M NA NA 974.4 NA NA M NA NA NA NA
2019/11/11 14:03:00 AWS2 8.01 280 9.98 276 M M M NA NA 974.2 NA NA M NA NA NA NA
2019/11/11 14:04:00 AWS2 8.08 280 9.98 276 M M M NA NA 973.8 NA NA M NA NA NA NA
2019/11/11 14:05:01 AWS2 7.59 279 9.98 276 M M M NA NA 974.1 NA NA M NA NA NA NA
2019/11/11 14:06:01 AWS2 7.43 279 9.98 276 M M M NA NA 974.1 NA NA M NA NA NA NA
2019/11/11 14:07:01 AWS2 7.53 279 9.52 280 M M M NA NA 974.0 NA NA M NA NA NA NA
2019/11/11 14:08:01 AWS2 7.87 279 9.52 280 M M M NA NA 973.8 NA NA M NA NA NA NA
2019/11/11 14:09:01 AWS2 8.18 278 9.57 268 M M M NA NA 973.6 NA NA M NA NA NA NA
2019/11/11 14:10:00 AWS2 8.21 278 9.62 280 M M M NA NA 973.2 NA NA M NA NA NA NA
2019/11/11 14:11:00 AWS2 8.05 278 9.62 280 M M M NA NA 974.1 NA NA M NA NA NA NA
2019/11/11 14:12:01 AWS2 7.97 278 9.62 280 M M M NA NA 974.1 NA NA M NA NA NA NA
2019/11/11 14:13:01 AWS2 7.97 279 9.62 280 M M M NA NA 974.0 NA NA M NA NA NA NA
2019/11/11 14:14:00 AWS2 8.07 280 9.62 280 M M M NA NA 974.6 NA NA M NA NA NA NA
2019/11/11 14:15:01 AWS2 8.08 279 9.62 280 M M M NA NA 974.5 NA NA M NA NA NA NA
2019/11/11 14:16:00 AWS2 7.81 281 9.62 280 M M M NA NA 974.3 NA NA M NA NA NA NA
2019/11/11 14:17:01 AWS2 7.96 282 9.62 280 M M M NA NA 974.4 NA NA M NA NA NA NA
2019/11/11 14:18:01 AWS2 8.29 280 9.62 280 M M M NA NA 974.1 NA NA M NA NA NA NA
2019/11/11 14:19:01 AWS2 8.24 279 9.62 280 M M M NA NA 974.1 NA NA M NA NA NA NA
2019/11/11 14:20:01 AWS2 7.62 281 9.21 280 M M M NA NA 973.8 NA NA M NA NA NA NA
2019/11/11 14:21:00 AWS2 7.41 281 9.21 280 M M M NA NA 974.1 NA NA M NA NA NA NA
2019/11/11 14:22:01 AWS2 7.80 280 9.21 280 M M M NA NA 974.0 NA NA M NA NA NA NA
2019/11/11 14:23:01 AWS2 8.05 281 9.21 280 M M M NA NA 974.2 NA NA M NA NA NA NA
2019/11/11 14:24:01 AWS2 7.80 282 9.21 280 M M M NA NA 973.8 NA NA M NA NA NA NA
2019/11/11 14:25:01 AWS2 7.72 284 9.21 280 M M M NA NA 973.9 NA NA M NA NA NA NA
2019/11/11 14:26:01 AWS2 7.63 285 9.21 280 M M M NA NA 974.0 NA NA M NA NA NA NA
2019/11/11 14:27:01 AWS2 7.52 283 9.21 280 M M M NA NA 974.1 NA NA M NA NA NA NA
2019/11/11 14:28:01 AWS2 7.57 284 9.05 282 M M M NA NA 974.3 NA NA M NA NA NA NA
2019/11/11 14:29:01 AWS2 7.51 288 9.05 282 M M M NA NA 974.2 NA NA M NA NA NA NA
2019/11/11 14:30:01 AWS2 7.64 290 9.05 282 M M M NA NA 974.2 NA NA M NA NA NA NA
2019/11/11 14:31:02 AWS2 7.56 292 9.05 282 M M M NA NA 974.2 NA NA M NA NA NA NA
2019/11/11 14:32:01 AWS2 7.73 293 9.05 282 M M M NA NA 974.4 NA NA M NA NA NA NA
2019/11/11 14:33:01 AWS2 7.88 291 9.05 282 M M M NA NA 974.2 NA NA M NA NA NA NA
2019/11/11 14:34:01 AWS2 7.65 287 8.49 288 M M M NA NA 974.2 NA NA M NA NA NA NA
2019/11/11 14:35:01 AWS2 7.80 285 8.64 280 M M M NA NA 974.4 NA NA M NA NA NA NA
2019/11/11 14:36:01 AWS2 7.87 286 8.64 280 M M M NA NA 974.3 NA NA M NA NA NA NA
2019/11/11 14:37:02 AWS2 7.94 285 9.21 281 M M M NA NA 974.3 NA NA M NA NA NA NA
2019/11/11 14:38:01 AWS2 8.57 285 9.67 285 M M M NA NA 973.8 NA NA M NA NA NA NA
2019/11/11 14:39:01 AWS2 8.46 284 9.67 285 M M M NA NA 973.8 NA NA M NA NA NA NA
2019/11/11 14:40:01 AWS2 7.66 284 9.67 285 M M M NA NA 974.2 NA NA M NA NA NA NA
2019/11/11 14:41:01 AWS2 7.54 282 9.67 285 M M M NA NA 974.3 NA NA M NA NA NA NA
2019/11/11 14:42:01 AWS2 8.00 280 9.67 285 M M M NA NA 974.2 NA NA M NA NA NA NA
2019/11/11 14:43:01 AWS2 8.30 284 9.67 285 M M M NA NA 974.6 NA NA M NA NA NA NA
2019/11/11 14:44:01 AWS2 8.26 285 9.67 285 M M M NA NA 974.1 NA NA M NA NA NA NA
2019/11/11 14:45:02 AWS2 8.28 282 9.67 285 M M M NA NA 974.2 NA NA M NA NA NA NA
2019/11/11 14:46:01 AWS2 8.41 282 9.67 285 M M M NA NA 974.1 NA NA M NA NA NA NA
2019/11/11 14:47:01 AWS2 8.26 285 9.67 285 M M M NA NA 974.1 NA NA M NA NA NA NA
2019/11/11 14:48:01 AWS2 8.25 285 9.21 281 M M M NA NA 974.4 NA NA M NA NA NA NA
2019/11/11 14:49:01 AWS2 8.39 284 9.21 281 M M M NA NA 974.1 NA NA M NA NA NA NA
2019/11/11 14:50:01 AWS2 8.36 284 9.21 281 M M M NA NA 974.3 NA NA M NA NA NA NA
2019/11/11 14:51:02 AWS2 8.02 283 9.21 281 M M M NA NA 974.2 NA NA M NA NA NA NA
2019/11/11 14:52:01 AWS2 7.62 282 9.21 281 M M M NA NA 974.2 NA NA M NA NA NA NA
2019/11/11 14:53:01 AWS2 8.03 283 9.52 287 M M M NA NA 974.4 NA NA M NA NA NA NA
2019/11/11 14:54:01 AWS2 8.74 282 9.52 282 M M M NA NA 974.4 NA NA M NA NA NA NA
2019/11/11 14:55:01 AWS2 8.57 280 9.52 282 M M M NA NA 974.7 NA NA M NA NA NA NA
2019/11/11 14:56:01 AWS2 8.60 284 10.44 284 M M M NA NA 974.4 NA NA M NA NA NA NA
2019/11/11 14:57:01 AWS2 8.41 286 10.44 284 M M M NA NA 974.6 NA NA M NA NA NA NA
2019/11/11 14:58:00 AWS2 7.95 283 10.44 284 M M M NA NA 974.4 NA NA M NA NA NA NA
2019/11/11 14:59:01 AWS2 8.49 279 10.44 284 M M M NA NA 974.1 NA NA M NA NA NA NA
2019/11/11 15:00:01 AWS2 8.82 278 10.44 284 M M M NA NA 974.5 NA NA M NA NA NA NA
2019/11/11 15:01:00 AWS2 8.54 279 10.44 284 M M M NA NA 974.1 NA NA M NA NA NA NA
2019/11/11 15:02:00 AWS2 8.74 278 10.44 284 M M M NA NA 974.1 NA NA M NA NA NA NA
2019/11/11 15:03:01 AWS2 8.93 279 10.44 284 M M M NA NA 974.6 NA NA M NA NA NA NA
2019/11/11 15:04:01 AWS2 8.94 278 10.44 284 M M M NA NA 975.0 NA NA M NA NA NA NA
2019/11/11 15:05:00 AWS2 8.62 277 10.44 284 M M M NA NA 974.9 NA NA M NA NA NA NA
2019/11/11 15:06:01 AWS2 8.59 279 9.98 277 M M M NA NA 974.5 NA NA M NA NA NA NA
2019/11/11 15:07:01 AWS2 8.97 280 9.98 277 M M M NA NA 974.6 NA NA M NA NA NA NA
2019/11/11 15:08:01 AWS2 8.25 278 9.98 277 M M M NA NA 974.4 NA NA M NA NA NA NA
2019/11/11 15:09:01 AWS2 8.02 276 9.98 277 M M M NA NA 974.9 NA NA M NA NA NA NA
2019/11/11 15:10:00 AWS2 9.08 276 10.49 276 M M M NA NA 975.1 NA NA M NA NA NA NA
2019/11/11 15:11:01 AWS2 8.78 277 10.49 276 M M M NA NA 974.7 NA NA M NA NA NA NA
2019/11/11 15:12:00 AWS2 7.84 278 10.49 276 M M M NA NA 974.8 NA NA M NA NA NA NA
2019/11/11 15:13:01 AWS2 8.93 277 10.49 276 M M M NA NA 974.6 NA NA M NA NA NA NA
2019/11/11 15:14:01 AWS2 9.63 276 10.49 276 M M M NA NA 974.5 NA NA M NA NA NA NA
2019/11/11 15:15:01 AWS2 9.45 279 10.49 276 M M M NA NA 975.1 NA NA M NA NA NA NA
2019/11/11 15:16:01 AWS2 9.33 278 10.49 276 M M M NA NA 974.7 NA NA M NA NA NA NA
2019/11/11 15:17:02 AWS2 9.14 275 10.55 275 M M M NA NA 974.7 NA NA M NA NA NA NA
2019/11/11 15:18:02 AWS2 9.28 273 11.11 264 M M M NA NA 974.7 NA NA M NA NA NA NA
2019/11/11 15:19:00 AWS2 9.59 274 11.32 278 M M M NA NA 974.7 NA NA M NA NA NA NA
2019/11/11 15:20:01 AWS2 9.68 277 11.78 268 M M M NA NA 975.0 NA NA M NA NA NA NA
2019/11/11 15:21:01 AWS2 9.25 275 11.78 268 M M M NA NA 974.8 NA NA M NA NA NA NA
2019/11/11 15:22:01 AWS2 9.33 274 11.78 268 M M M NA NA 974.6 NA NA M NA NA NA NA
2019/11/11 15:23:01 AWS2 9.46 274 11.78 268 M M M NA NA 974.9 NA NA M NA NA NA NA
2019/11/11 15:24:01 AWS2 9.31 274 11.78 268 M M M NA NA 974.7 NA NA M NA NA NA NA
2019/11/11 15:25:01 AWS2 9.46 276 11.78 268 M M M NA NA 975.3 NA NA M NA NA NA NA
2019/11/11 15:26:01 AWS2 9.86 274 11.78 268 M M M NA NA 974.7 NA NA M NA NA NA NA
2019/11/11 15:27:01 AWS2 9.41 271 11.78 268 M M M NA NA 974.9 NA NA M NA NA NA NA
2019/11/11 15:28:01 AWS2 8.65 272 11.78 268 M M M NA NA 975.3 NA NA M NA NA NA NA
2019/11/11 15:29:01 AWS2 9.32 270 11.78 268 M M M NA NA 974.7 NA NA M NA NA NA NA
2019/11/11 15:30:01 AWS2 10.08 270 11.32 273 M M M NA NA 974.9 NA NA M NA NA NA NA
2019/11/11 15:31:02 AWS2 9.83 273 11.32 273 M M M NA NA 974.6 NA NA M NA NA NA NA
2019/11/11 15:32:02 AWS2 9.82 271 11.32 273 M M M NA NA 974.7 NA NA M NA NA NA NA
2019/11/11 15:33:02 AWS2 9.87 270 11.32 273 M M M NA NA 974.8 NA NA M NA NA NA NA
2019/11/11 15:34:01 AWS2 9.17 273 11.32 273 M M M NA NA 975.1 NA NA M NA NA NA NA
2019/11/11 15:35:01 AWS2 8.92 276 11.32 273 M M M NA NA 974.7 NA NA M NA NA NA NA
2019/11/11 15:36:01 AWS2 9.07 275 11.01 279 M M M NA NA 974.5 NA NA M NA NA NA NA
2019/11/11 15:37:01 AWS2 9.16 273 11.01 279 M M M NA NA 974.5 NA NA M NA NA NA NA
2019/11/11 15:38:01 AWS2 8.86 273 11.01 279 M M M NA NA 973.9 NA NA M NA NA NA NA
2019/11/11 15:39:01 AWS2 8.99 274 11.01 279 M M M NA NA 975.1 NA NA M NA NA NA NA
2019/11/11 15:40:01 AWS2 9.55 273 11.01 279 M M M NA NA 974.8 NA NA M NA NA NA NA
2019/11/11 15:41:01 AWS2 9.21 272 10.80 267 M M M NA NA 974.5 NA NA M NA NA NA NA
2019/11/11 15:42:00 AWS2 9.21 273 10.75 260 M M M NA NA 974.1 NA NA M NA NA NA NA
2019/11/11 15:43:01 AWS2 9.86 273 11.01 273 M M M NA NA 974.3 NA NA M NA NA NA NA
2019/11/11 15:44:01 AWS2 9.71 274 11.01 273 M M M NA NA 974.7 NA NA M NA NA NA NA
2019/11/11 15:45:02 AWS2 9.59 273 11.01 273 M M M NA NA 974.1 NA NA M NA NA NA NA
2019/11/11 15:46:01 AWS2 9.42 270 11.37 268 M M M NA NA 973.9 NA NA M NA NA NA NA
2019/11/11 15:47:00 AWS2 9.99 269 11.68 269 M M M NA NA 973.5 NA NA M NA NA NA NA
2019/11/11 15:48:00 AWS2 10.41 270 11.68 269 M M M NA NA 974.3 NA NA M NA NA NA NA
2019/11/11 15:49:01 AWS2 9.44 270 11.68 269 M M M NA NA 974.4 NA NA M NA NA NA NA
2019/11/11 15:50:01 AWS2 9.00 270 11.68 269 M M M NA NA 973.8 NA NA M NA NA NA NA
2019/11/11 15:51:01 AWS2 9.12 270 11.68 269 M M M NA NA 974.5 NA NA M NA NA NA NA
2019/11/11 15:52:01 AWS2 9.52 269 11.68 269 M M M NA NA 974.3 NA NA M NA NA NA NA
2019/11/11 15:53:01 AWS2 10.05 269 11.68 269 M M M NA NA 974.1 NA NA M NA NA NA NA
2019/11/11 15:54:01 AWS2 9.57 271 11.68 269 M M M NA NA 974.4 NA NA M NA NA NA NA
2019/11/11 15:55:01 AWS2 8.62 272 11.68 269 M M M NA NA 974.7 NA NA M NA NA NA NA
2019/11/11 15:56:01 AWS2 8.96 271 11.68 269 M M M NA NA 974.6 NA NA M NA NA NA NA
2019/11/11 15:57:01 AWS2 9.75 272 11.32 276 M M M NA NA 974.4 NA NA M NA NA NA NA
2019/11/11 15:58:01 AWS2 9.67 272 11.32 276 M M M NA NA 974.3 NA NA M NA NA NA NA
2019/11/11 15:59:01 AWS2 9.96 271 11.32 276 M M M NA NA 974.4 NA NA M NA NA NA NA
2019/11/11 16:00:00 AWS2 9.93 271 11.32 276 M M M NA NA 973.7 NA NA M NA NA NA NA
2019/11/11 16:01:01 AWS2 9.03 271 11.32 276 M M M NA NA 974.6 NA NA M NA NA NA NA
2019/11/11 16:02:00 AWS2 9.43 272 11.21 274 M M M NA NA 974.3 NA NA M NA NA NA NA
2019/11/11 16:03:01 AWS2 9.89 273 11.21 274 M M M NA NA 974.5 NA NA M NA NA NA NA
2019/11/11 16:04:01 AWS2 9.59 272 11.21 274 M M M NA NA 974.8 NA NA M NA NA NA NA
2019/11/11 16:05:01 AWS2 9.51 271 11.21 274 M M M NA NA 974.4 NA NA M NA NA NA NA
2019/11/11 16:06:01 AWS2 10.24 269 11.94 259 M M M NA NA 974.2 NA NA M NA NA NA NA
2019/11/11 16:07:01 AWS2 10.37 267 11.94 259 M M M NA NA 974.3 NA NA M NA NA NA NA
2019/11/11 16:08:00 AWS2 9.12 268 11.94 259 M M M NA NA 974.6 NA NA M NA NA NA NA
2019/11/11 16:09:01 AWS2 8.95 268 11.94 259 M M M NA NA 975.0 NA NA M NA NA NA NA
2019/11/11 16:10:00 AWS2 9.53 266 11.94 259 M M M NA NA 975.1 NA NA M NA NA NA NA
2019/11/11 16:11:00 AWS2 9.28 269 11.94 259 M M M NA NA 975.2 NA NA M NA NA NA NA
2019/11/11 16:12:01 AWS2 8.79 268 11.94 259 M M M NA NA 974.7 NA NA M NA NA NA NA
2019/11/11 16:13:02 AWS2 9.30 265 11.94 259 M M M NA NA 973.8 NA NA M NA NA NA NA
2019/11/11 16:14:01 AWS2 9.73 270 11.94 259 M M M NA NA 974.0 NA NA M NA NA NA NA
2019/11/11 16:15:01 AWS2 9.41 270 11.94 259 M M M NA NA 975.0 NA NA M NA NA NA NA
2019/11/11 16:16:01 AWS2 9.72 267 11.47 257 M M M NA NA 974.5 NA NA M NA NA NA NA
2019/11/11 16:17:01 AWS2 9.41 267 10.65 263 M M M NA NA 974.3 NA NA M NA NA NA NA
2019/11/11 16:18:02 AWS2 9.22 267 11.32 269 M M M NA NA 974.8 NA NA M NA NA NA NA
2019/11/11 16:19:01 AWS2 9.51 266 11.32 269 M M M NA NA 974.7 NA NA M NA NA NA NA
2019/11/11 16:20:01 AWS2 9.52 262 11.32 269 M M M NA NA 974.7 NA NA M NA NA NA NA
2019/11/11 16:21:01 AWS2 9.49 262 11.32 269 M M M NA NA 975.2 NA NA M NA NA NA NA
2019/11/11 16:22:00 AWS2 8.99 265 11.32 269 M M M NA NA 974.7 NA NA M NA NA NA NA
2019/11/11 16:23:00 AWS2 9.25 267 11.32 269 M M M NA NA 974.7 NA NA M NA NA NA NA
2019/11/11 16:24:01 AWS2 10.23 267 11.88 272 M M M NA NA 975.0 NA NA M NA NA NA NA
2019/11/11 16:25:01 AWS2 10.42 266 11.88 272 M M M NA NA 974.9 NA NA M NA NA NA NA
2019/11/11 16:26:01 AWS2 9.25 265 11.88 272 M M M NA NA 974.9 NA NA M NA NA NA NA
2019/11/11 16:27:01 AWS2 9.06 265 11.88 272 M M M NA NA 974.9 NA NA M NA NA NA NA
2019/11/11 16:28:02 AWS2 9.79 266 11.88 272 M M M NA NA 975.3 NA NA M NA NA NA NA
2019/11/11 16:29:01 AWS2 9.99 268 11.88 272 M M M NA NA 974.7 NA NA M NA NA NA NA
2019/11/11 16:30:01 AWS2 9.58 267 11.88 272 M M M NA NA 974.8 NA NA M NA NA NA NA
2019/11/11 16:31:02 AWS2 8.90 265 11.88 272 M M M NA NA 975.1 NA NA M NA NA NA NA
2019/11/11 16:32:00 AWS2 9.02 264 11.88 272 M M M NA NA 974.9 NA NA M NA NA NA NA
2019/11/11 16:33:01 AWS2 8.88 264 11.88 272 M M M NA NA 975.0 NA NA M NA NA NA NA
2019/11/11 16:34:01 AWS2 8.59 265 11.11 263 M M M NA NA 975.2 NA NA M NA NA NA NA
2019/11/11 16:35:00 AWS2 8.87 266 11.01 275 M M M NA NA 975.1 NA NA M NA NA NA NA
2019/11/11 16:36:01 AWS2 9.16 263 11.01 275 M M M NA NA 975.6 NA NA M NA NA NA NA
2019/11/11 16:37:01 AWS2 9.34 263 11.32 270 M M M NA NA 974.6 NA NA M NA NA NA NA
2019/11/11 16:38:01 AWS2 9.04 266 11.32 270 M M M NA NA 975.2 NA NA M NA NA NA NA
2019/11/11 16:39:02 AWS2 8.87 265 11.32 270 M M M NA NA 975.0 NA NA M NA NA NA NA
2019/11/11 16:40:01 AWS2 8.98 264 11.32 270 M M M NA NA 975.2 NA NA M NA NA NA NA
2019/11/11 16:41:02 AWS2 9.14 264 11.32 270 M M M NA NA 974.6 NA NA M NA NA NA NA
2019/11/11 16:42:01 AWS2 9.59 265 11.32 270 M M M NA NA 974.7 NA NA M NA NA NA NA
2019/11/11 16:43:01 AWS2 9.84 264 12.09 264 M M M NA NA 975.4 NA NA M NA NA NA NA
2019/11/11 16:44:02 AWS2 9.29 262 12.09 264 M M M NA NA 975.0 NA NA M NA NA NA NA
2019/11/11 16:45:01 AWS2 8.61 263 12.09 264 M M M NA NA 974.9 NA NA M NA NA NA NA
2019/11/11 16:46:01 AWS2 9.13 263 12.09 264 M M M NA NA 974.6 NA NA M NA NA NA NA
2019/11/11 16:47:01 AWS2 9.85 260 12.09 264 M M M NA NA 975.0 NA NA M NA NA NA NA
2019/11/11 16:48:02 AWS2 9.68 263 12.09 264 M M M NA NA 975.1 NA NA M NA NA NA NA
2019/11/11 16:49:01 AWS2 9.88 263 12.09 264 M M M NA NA 974.3 NA NA M NA NA NA NA
2019/11/11 16:50:01 AWS2 10.17 261 12.09 264 M M M NA NA 975.0 NA NA M NA NA NA NA
2019/11/11 16:51:01 AWS2 10.24 263 12.09 264 M M M NA NA 975.1 NA NA M NA NA NA NA
2019/11/11 16:52:01 AWS2 9.86 264 12.09 264 M M M NA NA 974.9 NA NA M NA NA NA NA
2019/11/11 16:53:01 AWS2 9.89 263 11.88 255 M M M NA NA 975.0 NA NA M NA NA NA NA
2019/11/11 16:54:01 AWS2 9.88 262 11.88 255 M M M NA NA 975.5 NA NA M NA NA NA NA
2019/11/11 16:55:02 AWS2 9.69 262 11.88 255 M M M NA NA 975.0 NA NA M NA NA NA NA
2019/11/11 16:56:01 AWS2 10.26 263 11.88 255 M M M NA NA 975.0 NA NA M NA NA NA NA
2019/11/11 16:57:02 AWS2 9.81 264 11.88 255 M M M NA NA 975.3 NA NA M NA NA NA NA
2019/11/11 16:58:01 AWS2 9.50 265 11.88 255 M M M NA NA 974.9 NA NA M NA NA NA NA
2019/11/11 16:59:01 AWS2 10.24 262 11.88 255 M M M NA NA 974.7 NA NA M NA NA NA NA
2019/11/11 17:00:02 AWS2 10.48 260 11.88 255 M M M NA NA 975.4 NA NA M NA NA NA NA
2019/11/11 17:01:01 AWS2 10.07 261 11.63 260 M M M NA NA 974.8 NA NA M NA NA NA NA
2019/11/11 17:02:00 AWS2 9.44 262 11.63 260 M M M NA NA 975.3 NA NA M NA NA NA NA
2019/11/11 17:03:01 AWS2 9.50 264 11.63 260 M M M NA NA 974.7 NA NA M NA NA NA NA
2019/11/11 17:04:01 AWS2 9.91 265 11.63 260 M M M NA NA 975.7 NA NA M NA NA NA NA
2019/11/11 17:05:00 AWS2 9.49 265 11.63 260 M M M NA NA 975.3 NA NA M NA NA NA NA
2019/11/11 17:06:00 AWS2 9.23 264 11.42 257 M M M NA NA 974.7 NA NA M NA NA NA NA
2019/11/11 17:07:01 AWS2 9.38 263 11.42 257 M M M NA NA 974.9 NA NA M NA NA NA NA
2019/11/11 17:08:01 AWS2 9.46 262 11.42 257 M M M NA NA 975.6 NA NA M NA NA NA NA
2019/11/11 17:09:01 AWS2 9.75 260 11.11 257 M M M NA NA 975.4 NA NA M NA NA NA NA
2019/11/11 17:10:01 AWS2 10.10 263 11.21 265 M M M NA NA 974.7 NA NA M NA NA NA NA
2019/11/11 17:11:01 AWS2 10.63 265 13.17 261 M M M NA NA 974.6 NA NA M NA NA NA NA
2019/11/11 17:12:01 AWS2 10.82 263 13.17 261 M M M NA NA 975.4 NA NA M NA NA NA NA
2019/11/11 17:13:01 AWS2 10.60 262 13.17 261 M M M NA NA 975.0 NA NA M NA NA NA NA
2019/11/11 17:14:00 AWS2 10.02 263 13.17 261 M M M NA NA 975.3 NA NA M NA NA NA NA
2019/11/11 17:15:01 AWS2 9.73 261 13.17 261 M M M NA NA 974.9 NA NA M NA NA NA NA
2019/11/11 17:16:00 AWS2 10.11 261 13.17 261 M M M NA NA 974.9 NA NA M NA NA NA NA
2019/11/11 17:17:01 AWS2 10.41 261 13.17 261 M M M NA NA 975.8 NA NA M NA NA NA NA
2019/11/11 17:18:00 AWS2 10.45 262 13.17 261 M M M NA NA 974.8 NA NA M NA NA NA NA
2019/11/11 17:19:01 AWS2 10.28 262 13.17 261 M M M NA NA 975.4 NA NA M NA NA NA NA
2019/11/11 17:20:01 AWS2 10.80 261 13.17 261 M M M NA NA 974.9 NA NA M NA NA NA NA
2019/11/11 17:21:00 AWS2 11.21 263 12.91 261 M M M NA NA 975.0 NA NA M NA NA NA NA
2019/11/11 17:22:00 AWS2 10.56 263 12.91 261 M M M NA NA 975.2 NA NA M NA NA NA NA
2019/11/11 17:23:01 AWS2 10.27 262 12.96 258 M M M NA NA 975.3 NA NA M NA NA NA NA
2019/11/11 17:24:00 AWS2 10.73 261 12.96 258 M M M NA NA 974.9 NA NA M NA NA NA NA
2019/11/11 17:25:01 AWS2 11.15 262 12.96 258 M M M NA NA 974.8 NA NA M NA NA NA NA
2019/11/11 17:26:01 AWS2 11.30 263 12.96 258 M M M NA NA 975.7 NA NA M NA NA NA NA
2019/11/11 17:27:01 AWS2 10.66 263 12.96 258 M M M NA NA 975.1 NA NA M NA NA NA NA
2019/11/11 17:28:00 AWS2 10.74 265 12.96 258 M M M NA NA 975.7 NA NA M NA NA NA NA
2019/11/11 17:29:01 AWS2 10.73 263 12.96 258 M M M NA NA 975.9 NA NA M NA NA NA NA
2019/11/11 17:30:01 AWS2 9.78 261 12.96 258 M M M NA NA 974.8 NA NA M NA NA NA NA
2019/11/11 17:31:02 AWS2 9.63 261 12.96 258 M M M NA NA 975.6 NA NA M NA NA NA NA
2019/11/11 17:32:01 AWS2 10.06 259 12.96 258 M M M NA NA 975.5 NA NA M NA NA NA NA
2019/11/11 17:33:01 AWS2 10.43 260 12.35 258 M M M NA NA 975.9 NA NA M NA NA NA NA
2019/11/11 17:34:02 AWS2 10.53 262 12.35 258 M M M NA NA 976.0 NA NA M NA NA NA NA
2019/11/11 17:35:02 AWS2 10.48 263 12.35 258 M M M NA NA 975.4 NA NA M NA NA NA NA
2019/11/11 17:36:01 AWS2 10.27 262 12.35 258 M M M NA NA 975.8 NA NA M NA NA NA NA
2019/11/11 17:37:01 AWS2 9.63 261 12.35 258 M M M NA NA 975.6 NA NA M NA NA NA NA
2019/11/11 17:38:01 AWS2 9.70 262 12.35 258 M M M NA NA 975.5 NA NA M NA NA NA NA
2019/11/11 17:39:01 AWS2 10.13 262 12.35 258 M M M NA NA 976.0 NA NA M NA NA NA NA
2019/11/11 17:40:01 AWS2 9.89 262 12.35 258 M M M NA NA 975.9 NA NA M NA NA NA NA
2019/11/11 17:41:01 AWS2 10.42 263 12.35 258 M M M NA NA 975.6 NA NA M NA NA NA NA
2019/11/11 17:42:01 AWS2 10.62 262 12.24 257 M M M NA NA 975.6 NA NA M NA NA NA NA
2019/11/11 17:43:01 AWS2 10.04 260 12.24 257 M M M NA NA 975.8 NA NA M NA NA NA NA
2019/11/11 17:44:01 AWS2 10.10 262 12.24 257 M M M NA NA 976.0 NA NA M NA NA NA NA
2019/11/11 17:45:01 AWS2 10.00 263 12.24 257 M M M NA NA 975.9 NA NA M NA NA NA NA
2019/11/11 17:46:01 AWS2 9.16 264 12.24 257 M M M NA NA 975.6 NA NA M NA NA NA NA
2019/11/11 17:47:01 AWS2 9.25 262 12.24 257 M M M NA NA 975.6 NA NA M NA NA NA NA
2019/11/11 17:48:00 AWS2 9.64 260 12.24 257 M M M NA NA 975.7 NA NA M NA NA NA NA
2019/11/11 17:49:01 AWS2 9.26 262 12.24 257 M M M NA NA 976.3 NA NA M NA NA NA NA
2019/11/11 17:50:01 AWS2 9.30 265 12.24 257 M M M NA NA 975.8 NA NA M NA NA NA NA
2019/11/11 17:51:01 AWS2 9.66 265 11.57 261 M M M NA NA 975.9 NA NA M NA NA NA NA
2019/11/11 17:52:02 AWS2 9.83 263 11.57 261 M M M NA NA 975.2 NA NA M NA NA NA NA
2019/11/11 17:53:01 AWS2 9.29 265 11.57 261 M M M NA NA 976.2 NA NA M NA NA NA NA
2019/11/11 17:54:01 AWS2 8.59 265 11.57 261 M M M NA NA 976.0 NA NA M NA NA NA NA
2019/11/11 17:55:01 AWS2 8.36 264 10.65 265 M M M NA NA 976.2 NA NA M NA NA NA NA
2019/11/11 17:56:00 AWS2 8.36 262 10.65 265 M M M NA NA 976.2 NA NA M NA NA NA NA
2019/11/11 17:57:01 AWS2 9.06 260 10.65 265 M M M NA NA 975.9 NA NA M NA NA NA NA
2019/11/11 17:58:01 AWS2 9.76 260 10.65 265 M M M NA NA 976.0 NA NA M NA NA NA NA
2019/11/11 17:59:01 AWS2 9.56 261 10.65 265 M M M NA NA 976.2 NA NA M NA NA NA NA
2019/11/11 18:00:01 AWS2 8.94 262 10.65 265 M M M NA NA 975.8 NA NA M NA NA NA NA
2019/11/11 18:01:00 AWS2 8.64 262 10.65 265 M M M NA NA 975.4 NA NA M NA NA NA NA
2019/11/11 18:02:01 AWS2 8.28 263 10.49 261 M M M NA NA 976.5 NA NA M NA NA NA NA
2019/11/11 18:03:01 AWS2 8.13 265 10.49 261 M M M NA NA 976.3 NA NA M NA NA NA NA
2019/11/11 18:04:01 AWS2 8.59 264 10.49 261 M M M NA NA 975.8 NA NA M NA NA NA NA
2019/11/11 18:05:01 AWS2 9.36 262 10.91 255 M M M NA NA 976.0 NA NA M NA NA NA NA
2019/11/11 18:06:01 AWS2 9.47 263 10.91 255 M M M NA NA 975.7 NA NA M NA NA NA NA
2019/11/11 18:07:01 AWS2 9.35 263 10.91 255 M M M NA NA 976.1 NA NA M NA NA NA NA
2019/11/11 18:08:00 AWS2 9.53 263 10.91 255 M M M NA NA 976.4 NA NA M NA NA NA NA
2019/11/11 18:09:01 AWS2 9.39 263 10.91 255 M M M NA NA 976.1 NA NA M NA NA NA NA
2019/11/11 18:10:01 AWS2 9.31 262 10.91 255 M M M NA NA 975.7 NA NA M NA NA NA NA
2019/11/11 18:11:01 AWS2 9.88 263 11.99 258 M M M NA NA 975.7 NA NA M NA NA NA NA
2019/11/11 18:12:01 AWS2 10.29 263 11.99 258 M M M NA NA 976.3 NA NA M NA NA NA NA
2019/11/11 18:13:00 AWS2 10.20 262 11.99 258 M M M NA NA 975.9 NA NA M NA NA NA NA
2019/11/11 18:14:01 AWS2 10.34 261 11.99 258 M M M NA NA 975.8 NA NA M NA NA NA NA
2019/11/11 18:15:01 AWS2 10.04 264 11.99 258 M M M NA NA 975.6 NA NA M NA NA NA NA
2019/11/11 18:16:00 AWS2 9.96 264 11.99 258 M M M NA NA 975.8 NA NA M NA NA NA NA
2019/11/11 18:17:01 AWS2 10.56 262 12.35 261 M M M NA NA 976.0 NA NA M NA NA NA NA
2019/11/11 18:18:01 AWS2 10.69 263 12.35 261 M M M NA NA 975.9 NA NA M NA NA NA NA
2019/11/11 18:19:01 AWS2 11.03 262 12.45 260 M M M NA NA 976.0 NA NA M NA NA NA NA
2019/11/11 18:20:01 AWS2 11.01 261 12.45 260 M M M NA NA 976.1 NA NA M NA NA NA NA
2019/11/11 18:21:02 AWS2 9.93 264 12.45 260 M M M NA NA 975.9 NA NA M NA NA NA NA
2019/11/11 18:22:01 AWS2 9.72 266 12.45 260 M M M NA NA 975.7 NA NA M NA NA NA NA
2019/11/11 18:23:02 AWS2 9.75 266 12.45 260 M M M NA NA 975.1 NA NA M NA NA NA NA
2019/11/11 18:24:01 AWS2 10.15 263 12.45 260 M M M NA NA 976.0 NA NA M NA NA NA NA
2019/11/11 18:25:01 AWS2 10.43 260 12.45 260 M M M NA NA 975.8 NA NA M NA NA NA NA
2019/11/11 18:26:00 AWS2 10.27 260 12.45 260 M M M NA NA 976.0 NA NA M NA NA NA NA
2019/11/11 18:27:01 AWS2 10.02 262 12.45 260 M M M NA NA 976.2 NA NA M NA NA NA NA
2019/11/11 18:28:01 AWS2 9.84 262 12.45 260 M M M NA NA 976.1 NA NA M NA NA NA NA
2019/11/11 18:29:01 AWS2 9.69 262 12.45 260 M M M NA NA 975.8 NA NA M NA NA NA NA
2019/11/11 18:30:00 AWS2 9.52 263 12.45 260 M M M NA NA 976.4 NA NA M NA NA NA NA
2019/11/11 18:31:02 AWS2 9.93 265 12.45 260 M M M NA NA 975.8 NA NA M NA NA NA NA
2019/11/11 18:32:01 AWS2 9.93 263 12.45 260 M M M NA NA 975.7 NA NA M NA NA NA NA
2019/11/11 18:33:01 AWS2 9.84 261 12.45 260 M M M NA NA 976.2 NA NA M NA NA NA NA
2019/11/11 18:34:00 AWS2 9.82 261 11.47 256 M M M NA NA 976.7 NA NA M NA NA NA NA
2019/11/11 18:35:01 AWS2 10.06 262 11.88 263 M M M NA NA 975.8 NA NA M NA NA NA NA
2019/11/11 18:36:01 AWS2 10.29 263 11.88 263 M M M NA NA 975.2 NA NA M NA NA NA NA
2019/11/11 18:37:01 AWS2 10.13 262 11.88 263 M M M NA NA 975.7 NA NA M NA NA NA NA
2019/11/11 18:38:00 AWS2 10.00 263 11.88 263 M M M NA NA 975.8 NA NA M NA NA NA NA
2019/11/11 18:39:01 AWS2 9.81 263 11.88 263 M M M NA NA 975.9 NA NA M NA NA NA NA
2019/11/11 18:40:01 AWS2 9.12 262 11.88 263 M M M NA NA 975.8 NA NA M NA NA NA NA
2019/11/11 18:41:00 AWS2 8.79 262 11.88 263 M M M NA NA 975.4 NA NA M NA NA NA NA
2019/11/11 18:42:00 AWS2 9.57 261 11.88 263 M M M NA NA 976.6 NA NA M NA NA NA NA
2019/11/11 18:43:01 AWS2 9.77 260 11.88 263 M M M NA NA 976.6 NA NA M NA NA NA NA
2019/11/11 18:44:01 AWS2 9.21 262 11.88 263 M M M NA NA 975.7 NA NA M NA NA NA NA
2019/11/11 18:45:01 AWS2 9.23 262 11.57 248 M M M NA NA 976.3 NA NA M NA NA NA NA
2019/11/11 18:46:00 AWS2 9.82 263 11.57 248 M M M NA NA 976.0 NA NA M NA NA NA NA
2019/11/11 18:47:01 AWS2 10.13 263 11.57 248 M M M NA NA 976.0 NA NA M NA NA NA NA
2019/11/11 18:48:00 AWS2 10.32 263 11.63 258 M M M NA NA 976.3 NA NA M NA NA NA NA
2019/11/11 18:49:00 AWS2 10.18 263 11.63 258 M M M NA NA 975.7 NA NA M NA NA NA NA
2019/11/11 18:50:00 AWS2 9.93 261 11.63 258 M M M NA NA 976.4 NA NA M NA NA NA NA
2019/11/11 18:51:01 AWS2 10.01 262 11.63 258 M M M NA NA 975.9 NA NA M NA NA NA NA
2019/11/11 18:52:01 AWS2 10.32 263 11.63 257 M M M NA NA 975.4 NA NA M NA NA NA NA
2019/11/11 18:53:01 AWS2 11.09 264 12.09 270 M M M NA NA 974.9 NA NA M NA NA NA NA
2019/11/11 18:54:01 AWS2 11.45 263 12.66 259 M M M NA NA 975.1 NA NA M NA NA NA NA
2019/11/11 18:55:01 AWS2 10.61 262 12.66 259 M M M NA NA 975.5 NA NA M NA NA NA NA
2019/11/11 18:56:00 AWS2 10.63 261 12.81 267 M M M NA NA 974.6 NA NA M NA NA NA NA
2019/11/11 18:57:01 AWS2 10.88 259 12.81 267 M M M NA NA 975.3 NA NA M NA NA NA NA
2019/11/11 18:58:00 AWS2 10.53 260 12.81 267 M M M NA NA 975.8 NA NA M NA NA NA NA
2019/11/11 18:59:01 AWS2 10.95 261 12.81 267 M M M NA NA 975.3 NA NA M NA NA NA NA
2019/11/11 19:00:01 AWS2 11.32 260 12.81 267 M M M NA NA 975.1 NA NA M NA NA NA NA
2019/11/11 19:01:01 AWS2 11.77 260 13.02 256 M M M NA NA 974.9 NA NA M NA NA NA NA
2019/11/11 19:02:01 AWS2 11.51 260 13.02 256 M M M NA NA 975.7 NA NA M NA NA NA NA
2019/11/11 19:03:01 AWS2 10.81 258 13.02 256 M M M NA NA 975.7 NA NA M NA NA NA NA
2019/11/11 19:04:00 AWS2 10.34 258 13.02 256 M M M NA NA 976.0 NA NA M NA NA NA NA
2019/11/11 19:05:01 AWS2 10.13 261 13.02 256 M M M NA NA 976.0 NA NA M NA NA NA NA
2019/11/11 19:06:01 AWS2 10.68 260 13.02 256 M M M NA NA 976.0 NA NA M NA NA NA NA
2019/11/11 19:07:01 AWS2 10.93 260 13.02 256 M M M NA NA 976.0 NA NA M NA NA NA NA
2019/11/11 19:08:01 AWS2 10.33 259 13.02 256 M M M NA NA 975.2 NA NA M NA NA NA NA
2019/11/11 19:09:00 AWS2 9.78 260 13.02 256 M M M NA NA 975.5 NA NA M NA NA NA NA
2019/11/11 19:10:01 AWS2 10.40 262 13.02 256 M M M NA NA 975.2 NA NA M NA NA NA NA
2019/11/11 19:11:01 AWS2 10.22 260 12.14 263 M M M NA NA 975.3 NA NA M NA NA NA NA
2019/11/11 19:12:00 AWS2 10.01 262 12.14 263 M M M NA NA 975.4 NA NA M NA NA NA NA
2019/11/11 19:13:01 AWS2 10.62 263 12.14 263 M M M NA NA 975.9 NA NA M NA NA NA NA
2019/11/11 19:14:01 AWS2 10.50 260 12.45 262 M M M NA NA 975.2 NA NA M NA NA NA NA
2019/11/11 19:15:01 AWS2 10.21 260 12.45 262 M M M NA NA 975.5 NA NA M NA NA NA NA
2019/11/11 19:16:01 AWS2 9.96 262 12.45 262 M M M NA NA 975.3 NA NA M NA NA NA NA
2019/11/11 19:17:01 AWS2 9.77 261 12.45 262 M M M NA NA 974.4 NA NA M NA NA NA NA
2019/11/11 19:18:00 AWS2 9.79 260 12.45 262 M M M NA NA 975.8 NA NA M NA NA NA NA
2019/11/11 19:19:01 AWS2 10.34 260 12.45 262 M M M NA NA 974.9 NA NA M NA NA NA NA
2019/11/11 19:20:02 AWS2 10.44 261 12.45 262 M M M NA NA 975.7 NA NA M NA NA NA NA
2019/11/11 19:21:01 AWS2 10.69 262 12.45 262 M M M NA NA 974.4 NA NA M NA NA NA NA
2019/11/11 19:22:01 AWS2 11.04 260 12.45 262 M M M NA NA 975.0 NA NA M NA NA NA NA
2019/11/11 19:23:01 AWS2 10.10 259 12.45 262 M M M NA NA 975.5 NA NA M NA NA NA NA
2019/11/11 19:24:01 AWS2 9.57 260 12.19 252 M M M NA NA 975.4 NA NA M NA NA NA NA
2019/11/11 19:25:01 AWS2 10.14 258 12.19 252 M M M NA NA 975.0 NA NA M NA NA NA NA
2019/11/11 19:26:01 AWS2 10.25 259 12.19 252 M M M NA NA 975.4 NA NA M NA NA NA NA
2019/11/11 19:27:01 AWS2 10.26 260 12.19 252 M M M NA NA 975.7 NA NA M NA NA NA NA
2019/11/11 19:28:00 AWS2 10.69 260 12.19 252 M M M NA NA 974.5 NA NA M NA NA NA NA
2019/11/11 19:29:01 AWS2 10.30 260 12.19 252 M M M NA NA 975.2 NA NA M NA NA NA NA
2019/11/11 19:30:01 AWS2 9.74 261 12.19 252 M M M NA NA 974.4 NA NA M NA NA NA NA
2019/11/11 19:31:02 AWS2 9.92 259 12.19 252 M M M NA NA 975.6 NA NA M NA NA NA NA
2019/11/11 19:32:00 AWS2 9.76 258 11.99 246 M M M NA NA 974.8 NA NA M NA NA NA NA
2019/11/11 19:33:00 AWS2 9.78 260 11.99 246 M M M NA NA 975.4 NA NA M NA NA NA NA
2019/11/11 19:34:00 AWS2 10.25 260 11.99 246 M M M NA NA 975.7 NA NA M NA NA NA NA
2019/11/11 19:35:01 AWS2 10.38 262 11.83 259 M M M NA NA 976.0 NA NA M NA NA NA NA
2019/11/11 19:36:01 AWS2 10.03 259 11.83 259 M M M NA NA 975.3 NA NA M NA NA NA NA
2019/11/11 19:37:01 AWS2 10.29 258 11.99 254 M M M NA NA 975.3 NA NA M NA NA NA NA
2019/11/11 19:38:00 AWS2 10.61 261 11.99 254 M M M NA NA 975.9 NA NA M NA NA NA NA
2019/11/11 19:39:01 AWS2 10.30 260 11.99 254 M M M NA NA 975.6 NA NA M NA NA NA NA
2019/11/11 19:40:00 AWS2 10.39 260 11.99 254 M M M NA NA 975.2 NA NA M NA NA NA NA
2019/11/11 19:41:01 AWS2 10.98 260 12.86 252 M M M NA NA 976.1 NA NA M NA NA NA NA
2019/11/11 19:42:00 AWS2 11.09 260 12.86 252 M M M NA NA 975.5 NA NA M NA NA NA NA
2019/11/11 19:43:01 AWS2 10.65 262 12.86 252 M M M NA NA 975.6 NA NA M NA NA NA NA
2019/11/11 19:44:00 AWS2 10.80 263 12.86 252 M M M NA NA 974.9 NA NA M NA NA NA NA
2019/11/11 19:45:01 AWS2 10.90 261 12.86 252 M M M NA NA 975.4 NA NA M NA NA NA NA
2019/11/11 19:46:01 AWS2 10.88 259 12.86 252 M M M NA NA 975.6 NA NA M NA NA NA NA
2019/11/11 19:47:01 AWS2 10.32 257 12.86 252 M M M NA NA 976.0 NA NA M NA NA NA NA
2019/11/11 19:48:00 AWS2 9.56 256 12.86 252 M M M NA NA 975.5 NA NA M NA NA NA NA
2019/11/11 19:49:00 AWS2 9.57 255 12.86 252 M M M NA NA 976.4 NA NA M NA NA NA NA
2019/11/11 19:50:00 AWS2 9.58 254 12.86 252 M M M NA NA 976.0 NA NA M NA NA NA NA
2019/11/11 19:51:01 AWS2 9.89 254 12.35 259 M M M NA NA 975.8 NA NA M NA NA NA NA
2019/11/11 19:52:00 AWS2 10.71 254 12.35 259 M M M NA NA 975.7 NA NA M NA NA NA NA
2019/11/11 19:53:02 AWS2 10.91 252 12.45 248 M M M NA NA 976.0 NA NA M NA NA NA NA
2019/11/11 19:54:01 AWS2 10.35 252 12.45 248 M M M NA NA 975.8 NA NA M NA NA NA NA
2019/11/11 19:55:01 AWS2 9.76 253 12.45 248 M M M NA NA 975.8 NA NA M NA NA NA NA
2019/11/11 19:56:01 AWS2 9.95 252 12.45 248 M M M NA NA 976.3 NA NA M NA NA NA NA
2019/11/11 19:57:01 AWS2 10.52 251 12.50 249 M M M NA NA 975.6 NA NA M NA NA NA NA
2019/11/11 19:58:01 AWS2 10.02 252 12.50 249 M M M NA NA 976.3 NA NA M NA NA NA NA
2019/11/11 19:59:00 AWS2 9.82 252 12.50 249 M M M NA NA 976.3 NA NA M NA NA NA NA
2019/11/11 20:00:01 AWS2 10.20 250 12.50 249 M M M NA NA 976.7 NA NA M NA NA NA NA
2019/11/11 20:01:00 AWS2 9.69 251 12.50 249 M M M NA NA 976.0 NA NA M NA NA NA NA
2019/11/11 20:02:01 AWS2 9.03 251 12.50 249 M M M NA NA 977.0 NA NA M NA NA NA NA
2019/11/11 20:03:00 AWS2 8.99 253 12.50 249 M M M NA NA 976.7 NA NA M NA NA NA NA
2019/11/11 20:04:01 AWS2 9.64 254 12.50 249 M M M NA NA 976.9 NA NA M NA NA NA NA
2019/11/11 20:05:01 AWS2 10.20 252 12.50 249 M M M NA NA 976.9 NA NA M NA NA NA NA
2019/11/11 20:06:01 AWS2 10.54 249 12.50 249 M M M NA NA 977.0 NA NA M NA NA NA NA
2019/11/11 20:07:01 AWS2 9.77 246 11.68 247 M M M NA NA 976.8 NA NA M NA NA NA NA
2019/11/11 20:08:02 AWS2 9.18 245 11.68 247 M M M NA NA 977.2 NA NA M NA NA NA NA
2019/11/11 20:09:01 AWS2 10.02 242 12.14 236 M M M NA NA 976.7 NA NA M NA NA NA NA
2019/11/11 20:10:01 AWS2 9.36 244 12.14 236 M M M NA NA 977.2 NA NA M NA NA NA NA
2019/11/11 20:11:01 AWS2 8.99 244 12.14 236 M M M NA NA 977.4 NA NA M NA NA NA NA
2019/11/11 20:12:01 AWS2 10.44 245 12.14 236 M M M NA NA 976.4 NA NA M NA NA NA NA
2019/11/11 20:13:01 AWS2 10.58 246 12.35 241 M M M NA NA 976.5 NA NA M NA NA NA NA
2019/11/11 20:14:01 AWS2 10.62 244 12.76 242 M M M NA NA 976.9 NA NA M NA NA NA NA
2019/11/11 20:15:02 AWS2 10.52 243 12.76 242 M M M NA NA 977.2 NA NA M NA NA NA NA
2019/11/11 20:16:01 AWS2 9.69 244 12.76 242 M M M NA NA 976.9 NA NA M NA NA NA NA
2019/11/11 20:17:01 AWS2 9.70 246 12.76 242 M M M NA NA 977.1 NA NA M NA NA NA NA
2019/11/11 20:18:01 AWS2 8.86 248 12.76 242 M M M NA NA 976.6 NA NA M NA NA NA NA
2019/11/11 20:19:01 AWS2 8.52 247 12.76 242 M M M NA NA 977.0 NA NA M NA NA NA NA
2019/11/11 20:20:01 AWS2 8.62 245 12.76 242 M M M NA NA 977.4 NA NA M NA NA NA NA
2019/11/11 20:21:00 AWS2 9.02 249 12.76 242 M M M NA NA 976.4 NA NA M NA NA NA NA
2019/11/11 20:22:02 AWS2 9.44 253 12.76 242 M M M NA NA 976.7 NA NA M NA NA NA NA
2019/11/11 20:23:01 AWS2 7.95 255 12.76 242 M M M NA NA 977.2 NA NA M NA NA NA NA
2019/11/11 20:24:00 AWS2 7.90 256 12.14 253 M M M NA NA 976.8 NA NA M NA NA NA NA
2019/11/11 20:25:01 AWS2 9.11 254 12.14 253 M M M NA NA 977.8 NA NA M NA NA NA NA
2019/11/11 20:26:01 AWS2 9.58 250 12.14 253 M M M NA NA 977.3 NA NA M NA NA NA NA
2019/11/11 20:27:01 AWS2 9.88 247 12.14 253 M M M NA NA 977.3 NA NA M NA NA NA NA
2019/11/11 20:28:01 AWS2 9.93 249 12.14 253 M M M NA NA 977.7 NA NA M NA NA NA NA
2019/11/11 20:29:01 AWS2 10.29 253 12.14 253 M M M NA NA 977.6 NA NA M NA NA NA NA
2019/11/11 20:30:01 AWS2 10.21 251 12.14 253 M M M NA NA 977.8 NA NA M NA NA NA NA
2019/11/11 20:31:02 AWS2 9.41 252 11.78 245 M M M NA NA 978.0 NA NA M NA NA NA NA
2019/11/11 20:32:01 AWS2 9.45 254 11.78 245 M M M NA NA 977.8 NA NA M NA NA NA NA
2019/11/11 20:33:02 AWS2 9.89 254 11.78 245 M M M NA NA 977.0 NA NA M NA NA NA NA
2019/11/11 20:34:01 AWS2 9.55 253 11.78 245 M M M NA NA 977.5 NA NA M NA NA NA NA
2019/11/11 20:35:01 AWS2 9.36 252 11.78 245 M M M NA NA 977.5 NA NA M NA NA NA NA
2019/11/11 20:36:01 AWS2 9.33 252 11.78 245 M M M NA NA 977.6 NA NA M NA NA NA NA
2019/11/11 20:37:01 AWS2 9.17 255 11.78 245 M M M NA NA 978.1 NA NA M NA NA NA NA
2019/11/11 20:38:01 AWS2 9.38 252 11.78 245 M M M NA NA 977.7 NA NA M NA NA NA NA
2019/11/11 20:39:01 AWS2 9.18 249 11.37 257 M M M NA NA 977.6 NA NA M NA NA NA NA
2019/11/11 20:40:01 AWS2 8.54 248 11.37 257 M M M NA NA 978.0 NA NA M NA NA NA NA
2019/11/11 20:41:00 AWS2 8.63 248 11.37 257 M M M NA NA 978.3 NA NA M NA NA NA NA
2019/11/11 20:42:01 AWS2 8.77 250 11.37 257 M M M NA NA 978.1 NA NA M NA NA NA NA
2019/11/11 20:43:01 AWS2 8.29 251 11.11 247 M M M NA NA 977.8 NA NA M NA NA NA NA
2019/11/11 20:44:01 AWS2 8.14 253 11.11 247 M M M NA NA 978.4 NA NA M NA NA NA NA
2019/11/11 20:45:01 AWS2 7.97 254 11.11 247 M M M NA NA 978.1 NA NA M NA NA NA NA
2019/11/11 20:46:00 AWS2 8.08 253 11.11 247 M M M NA NA 978.3 NA NA M NA NA NA NA
2019/11/11 20:47:01 AWS2 8.69 252 11.11 247 M M M NA NA 978.5 NA NA M NA NA NA NA
2019/11/11 20:48:01 AWS2 8.59 254 11.11 247 M M M NA NA 978.4 NA NA M NA NA NA NA
2019/11/11 20:49:01 AWS2 8.11 256 11.11 247 M M M NA NA 978.1 NA NA M NA NA NA NA
2019/11/11 20:50:01 AWS2 7.75 255 11.11 247 M M M NA NA 978.9 NA NA M NA NA NA NA
2019/11/11 20:51:01 AWS2 7.37 254 10.08 248 M M M NA NA 978.7 NA NA M NA NA NA NA
2019/11/11 20:52:00 AWS2 7.88 255 10.34 254 M M M NA NA 978.7 NA NA M NA NA NA NA
2019/11/11 20:53:01 AWS2 8.65 255 10.34 254 M M M NA NA 978.7 NA NA M NA NA NA NA
2019/11/11 20:54:01 AWS2 8.58 253 10.34 254 M M M NA NA 978.8 NA NA M NA NA NA NA
2019/11/11 20:55:01 AWS2 8.45 252 10.34 243 M M M NA NA 978.4 NA NA M NA NA NA NA
2019/11/11 20:56:01 AWS2 8.28 253 10.34 243 M M M NA NA 978.7 NA NA M NA NA NA NA
2019/11/11 20:57:01 AWS2 8.46 252 10.70 247 M M M NA NA 978.7 NA NA M NA NA NA NA
2019/11/11 20:58:01 AWS2 9.02 252 10.70 247 M M M NA NA 978.6 NA NA M NA NA NA NA
2019/11/11 20:59:01 AWS2 9.16 254 10.70 247 M M M NA NA 978.7 NA NA M NA NA NA NA
2019/11/11 21:00:01 AWS2 9.19 254 10.70 247 M M M NA NA 978.5 NA NA M NA NA NA NA
2019/11/11 21:01:01 AWS2 8.78 253 10.70 247 M M M NA NA 978.5 NA NA M NA NA NA NA
2019/11/11 21:02:01 AWS2 8.13 253 10.70 247 M M M NA NA 978.2 NA NA M NA NA NA NA
2019/11/11 21:03:01 AWS2 8.48 253 10.70 247 M M M NA NA 978.0 NA NA M NA NA NA NA
2019/11/11 21:04:01 AWS2 8.72 255 10.70 247 M M M NA NA 978.8 NA NA M NA NA NA NA
2019/11/11 21:05:01 AWS2 8.35 258 10.70 247 M M M NA NA 979.1 NA NA M NA NA NA NA
2019/11/11 21:06:01 AWS2 7.46 257 10.70 247 M M M NA NA 978.6 NA NA M NA NA NA NA
2019/11/11 21:07:01 AWS2 7.37 257 10.44 251 M M M NA NA 978.7 NA NA M NA NA NA NA
2019/11/11 21:08:02 AWS2 8.33 257 10.44 251 M M M NA NA 979.0 NA NA M NA NA NA NA
2019/11/11 21:09:01 AWS2 8.08 255 10.44 251 M M M NA NA 979.1 NA NA M NA NA NA NA
2019/11/11 21:10:01 AWS2 7.83 254 10.39 254 M M M NA NA 978.7 NA NA M NA NA NA NA
2019/11/11 21:11:01 AWS2 8.22 255 10.39 254 M M M NA NA 978.9 NA NA M NA NA NA NA
2019/11/11 21:12:01 AWS2 8.59 255 10.39 254 M M M NA NA 978.3 NA NA M NA NA NA NA
2019/11/11 21:13:01 AWS2 8.50 256 10.08 242 M M M NA NA 978.3 NA NA M NA NA NA NA
2019/11/11 21:14:01 AWS2 8.39 256 9.93 256 M M M NA NA 979.0 NA NA M NA NA NA NA
2019/11/11 21:15:01 AWS2 8.39 256 9.93 256 M M M NA NA 978.6 NA NA M NA NA NA NA
2019/11/11 21:16:01 AWS2 8.28 256 9.93 256 M M M NA NA 978.6 NA NA M NA NA NA NA
2019/11/11 21:17:01 AWS2 8.49 254 9.98 254 M M M NA NA 978.7 NA NA M NA NA NA NA
2019/11/11 21:18:01 AWS2 8.51 254 9.98 254 M M M NA NA 979.0 NA NA M NA NA NA NA
2019/11/11 21:19:01 AWS2 7.85 256 9.98 254 M M M NA NA 979.3 NA NA M NA NA NA NA
2019/11/11 21:20:01 AWS2 7.72 257 9.98 254 M M M NA NA 979.3 NA NA M NA NA NA NA
2019/11/11 21:21:01 AWS2 8.09 258 9.98 254 M M M NA NA 978.6 NA NA M NA NA NA NA
2019/11/11 21:22:01 AWS2 8.15 258 9.98 254 M M M NA NA 978.7 NA NA M NA NA NA NA
2019/11/11 21:23:01 AWS2 7.93 257 9.98 254 M M M NA NA 978.6 NA NA M NA NA NA NA
2019/11/11 21:24:00 AWS2 7.95 258 9.98 254 M M M NA NA 978.9 NA NA M NA NA NA NA
2019/11/11 21:25:00 AWS2 8.43 258 9.98 254 M M M NA NA 978.8 NA NA M NA NA NA NA
2019/11/11 21:26:01 AWS2 7.95 258 9.98 254 M M M NA NA 979.5 NA NA M NA NA NA NA
2019/11/11 21:27:01 AWS2 7.81 261 9.88 252 M M M NA NA 979.0 NA NA M NA NA NA NA
2019/11/11 21:28:00 AWS2 8.08 259 9.88 252 M M M NA NA 979.2 NA NA M NA NA NA NA
2019/11/11 21:29:01 AWS2 8.09 258 9.88 252 M M M NA NA 979.1 NA NA M NA NA NA NA
2019/11/11 21:30:01 AWS2 7.93 260 9.88 252 M M M NA NA 979.5 NA NA M NA NA NA NA
2019/11/11 21:31:02 AWS2 7.50 261 9.88 252 M M M NA NA 978.6 NA NA M NA NA NA NA
2019/11/11 21:32:00 AWS2 7.81 260 9.88 252 M M M NA NA 979.3 NA NA M NA NA NA NA
2019/11/11 21:33:01 AWS2 8.46 260 9.88 252 M M M NA NA 979.1 NA NA M NA NA NA NA
2019/11/11 21:34:01 AWS2 8.35 262 9.88 252 M M M NA NA 979.2 NA NA M NA NA NA NA
2019/11/11 21:35:01 AWS2 8.56 261 9.62 259 M M M NA NA 979.6 NA NA M NA NA NA NA
2019/11/11 21:36:01 AWS2 9.21 259 10.29 260 M M M NA NA 979.4 NA NA M NA NA NA NA
2019/11/11 21:37:01 AWS2 9.12 259 10.29 260 M M M NA NA 979.0 NA NA M NA NA NA NA
2019/11/11 21:38:01 AWS2 9.10 259 10.29 260 M M M NA NA 978.8 NA NA M NA NA NA NA
2019/11/11 21:39:00 AWS2 9.00 261 10.29 260 M M M NA NA 978.3 NA NA M NA NA NA NA
2019/11/11 21:40:01 AWS2 9.11 260 10.29 260 M M M NA NA 979.3 NA NA M NA NA NA NA
2019/11/11 21:41:01 AWS2 9.13 260 10.29 260 M M M NA NA 979.0 NA NA M NA NA NA NA
2019/11/11 21:42:01 AWS2 8.88 261 10.29 260 M M M NA NA 978.8 NA NA M NA NA NA NA
2019/11/11 21:43:01 AWS2 8.75 260 10.29 260 M M M NA NA 978.8 NA NA M NA NA NA NA
2019/11/11 21:44:00 AWS2 7.96 258 10.29 260 M M M NA NA 979.2 NA NA M NA NA NA NA
2019/11/11 21:45:01 AWS2 7.55 257 10.29 260 M M M NA NA 979.3 NA NA M NA NA NA NA
2019/11/11 21:46:01 AWS2 8.33 259 10.08 258 M M M NA NA 978.9 NA NA M NA NA NA NA
2019/11/11 21:47:01 AWS2 9.07 260 10.39 256 M M M NA NA 978.8 NA NA M NA NA NA NA
2019/11/11 21:48:01 AWS2 8.88 257 10.39 256 M M M NA NA 978.7 NA NA M NA NA NA NA
2019/11/11 21:49:01 AWS2 8.57 256 10.39 256 M M M NA NA 978.3 NA NA M NA NA NA NA
2019/11/11 21:50:01 AWS2 8.59 259 10.39 256 M M M NA NA 979.0 NA NA M NA NA NA NA
2019/11/11 21:51:01 AWS2 8.63 258 10.39 256 M M M NA NA 979.0 NA NA M NA NA NA NA
2019/11/11 21:52:01 AWS2 8.41 258 10.39 256 M M M NA NA 978.7 NA NA M NA NA NA NA
2019/11/11 21:53:01 AWS2 8.45 259 10.39 256 M M M NA NA 978.7 NA NA M NA NA NA NA
2019/11/11 21:54:01 AWS2 8.77 256 10.39 256 M M M NA NA 978.9 NA NA M NA NA NA NA
2019/11/11 21:55:02 AWS2 8.71 256 10.39 256 M M M NA NA 978.8 NA NA M NA NA NA NA
2019/11/11 21:56:01 AWS2 8.05 256 10.39 256 M M M NA NA 978.6 NA NA M NA NA NA NA
2019/11/11 21:57:01 AWS2 7.38 257 10.13 238 M M M NA NA 978.9 NA NA M NA NA NA NA
2019/11/11 21:58:01 AWS2 7.82 260 9.98 259 M M M NA NA 979.2 NA NA M NA NA NA NA
2019/11/11 21:59:01 AWS2 8.60 259 10.08 261 M M M NA NA 978.6 NA NA M NA NA NA NA
2019/11/11 22:00:01 AWS2 8.72 258 10.08 261 M M M NA NA 978.8 NA NA M NA NA NA NA
2019/11/11 22:01:01 AWS2 8.24 258 10.08 261 M M M NA NA 979.4 NA NA M NA NA NA NA
2019/11/11 22:02:01 AWS2 7.97 257 10.08 261 M M M NA NA 978.7 NA NA M NA NA NA NA
2019/11/11 22:03:01 AWS2 8.07 257 10.08 261 M M M NA NA 979.9 NA NA M NA NA NA NA
2019/11/11 22:04:00 AWS2 8.20 258 10.08 261 M M M NA NA 978.9 NA NA M NA NA NA NA
2019/11/11 22:05:00 AWS2 8.78 259 10.08 261 M M M NA NA 978.4 NA NA M NA NA NA NA
2019/11/11 22:06:01 AWS2 9.25 259 10.08 261 M M M NA NA 978.8 NA NA M NA NA NA NA
2019/11/11 22:07:01 AWS2 9.18 260 10.08 261 M M M NA NA 979.2 NA NA M NA NA NA NA
2019/11/11 22:08:00 AWS2 8.87 261 10.08 261 M M M NA NA 979.0 NA NA M NA NA NA NA
2019/11/11 22:09:01 AWS2 9.05 260 9.93 255 M M M NA NA 978.4 NA NA M NA NA NA NA
2019/11/11 22:10:01 AWS2 9.29 260 10.65 261 M M M NA NA 978.7 NA NA M NA NA NA NA
2019/11/11 22:11:01 AWS2 9.05 260 10.65 261 M M M NA NA 979.3 NA NA M NA NA NA NA
2019/11/11 22:12:01 AWS2 8.79 260 10.65 261 M M M NA NA 979.2 NA NA M NA NA NA NA
2019/11/11 22:13:01 AWS2 8.91 258 10.65 261 M M M NA NA 979.2 NA NA M NA NA NA NA
2019/11/11 22:14:01 AWS2 8.74 258 10.65 261 M M M NA NA 978.9 NA NA M NA NA NA NA
2019/11/11 22:15:01 AWS2 8.41 259 10.65 261 M M M NA NA 979.1 NA NA M NA NA NA NA
2019/11/11 22:16:01 AWS2 8.27 258 10.65 261 M M M NA NA 979.1 NA NA M NA NA NA NA
2019/11/11 22:17:01 AWS2 8.14 258 10.65 261 M M M NA NA 979.4 NA NA M NA NA NA NA
2019/11/11 22:18:01 AWS2 8.33 257 10.65 261 M M M NA NA 979.5 NA NA M NA NA NA NA
2019/11/11 22:19:01 AWS2 8.26 258 10.65 261 M M M NA NA 978.5 NA NA M NA NA NA NA
2019/11/11 22:20:01 AWS2 7.92 260 9.72 262 M M M NA NA 979.0 NA NA M NA NA NA NA
2019/11/11 22:21:01 AWS2 7.82 260 9.72 262 M M M NA NA 979.7 NA NA M NA NA NA NA
2019/11/11 22:22:01 AWS2 8.20 258 9.72 262 M M M NA NA 978.7 NA NA M NA NA NA NA
2019/11/11 22:23:01 AWS2 8.30 257 9.62 249 M M M NA NA 979.6 NA NA M NA NA NA NA
2019/11/11 22:24:01 AWS2 8.38 258 9.62 249 M M M NA NA 979.4 NA NA M NA NA NA NA
2019/11/11 22:25:01 AWS2 8.17 259 9.62 249 M M M NA NA 978.8 NA NA M NA NA NA NA
2019/11/11 22:26:01 AWS2 8.21 259 9.62 261 M M M NA NA 979.2 NA NA M NA NA NA NA
2019/11/11 22:27:01 AWS2 8.15 256 9.62 261 M M M NA NA 979.6 NA NA M NA NA NA NA
2019/11/11 22:28:01 AWS2 7.68 256 9.62 261 M M M NA NA 979.5 NA NA M NA NA NA NA
2019/11/11 22:29:01 AWS2 7.88 256 9.62 261 M M M NA NA 979.4 NA NA M NA NA NA NA
2019/11/11 22:30:01 AWS2 7.74 256 9.62 261 M M M NA NA 978.8 NA NA M NA NA NA NA
2019/11/11 22:31:02 AWS2 7.79 259 9.62 261 M M M NA NA 978.5 NA NA M NA NA NA NA
2019/11/11 22:32:01 AWS2 8.06 259 9.62 261 M M M NA NA 980.2 NA NA M NA NA NA NA
2019/11/11 22:33:02 AWS2 8.15 256 9.98 255 M M M NA NA 979.6 NA NA M NA NA NA NA
2019/11/11 22:34:02 AWS2 8.68 257 10.65 253 M M M NA NA 980.0 NA NA M NA NA NA NA
2019/11/11 22:35:02 AWS2 8.62 258 10.65 253 M M M NA NA 979.9 NA NA M NA NA NA NA
2019/11/11 22:36:03 AWS2 8.16 257 10.65 253 M M M NA NA 979.3 NA NA M NA NA NA NA
2019/11/11 22:37:03 AWS2 8.22 257 10.65 253 M M M NA NA 979.3 NA NA M NA NA NA NA
2019/11/11 22:38:02 AWS2 8.07 257 10.65 253 M M M NA NA 980.4 NA NA M NA NA NA NA
2019/11/11 22:39:28 AWS2 7.46 257 10.65 253 M M M NA NA 979.9 NA NA M NA NA NA NA
2019/11/11 22:40:01 AWS2 M M 10.65 253 M M M NA NA M NA NA M NA NA NA NA
2019/11/11 22:41:04 AWS2 7.88 262 10.65 253 M M M NA NA 980.1 NA NA M NA NA NA NA
2019/11/11 22:42:03 AWS2 8.16 262 10.65 253 M M M NA NA 980.6 NA NA M NA NA NA NA
2019/11/11 22:43:01 AWS2 8.74 262 10.65 253 M M M NA NA 980.1 NA NA M NA NA NA NA
2019/11/11 22:44:01 AWS2 8.87 259 10.08 251 M M M NA NA 978.9 NA NA M NA NA NA NA
2019/11/11 22:45:01 AWS2 8.69 258 10.08 251 M M M NA NA 979.3 NA NA M NA NA NA NA
2019/11/11 22:46:01 AWS2 8.63 258 10.08 251 M M M NA NA 978.6 NA NA M NA NA NA NA
2019/11/11 22:47:01 AWS2 8.87 256 9.98 250 M M M NA NA 979.6 NA NA M NA NA NA NA
2019/11/11 22:48:00 AWS2 8.88 256 9.98 250 M M M NA NA 979.6 NA NA M NA NA NA NA
2019/11/11 22:49:00 AWS2 9.18 258 10.39 259 M M M NA NA 979.3 NA NA M NA NA NA NA
2019/11/11 22:50:00 AWS2 9.21 259 10.39 259 M M M NA NA 979.3 NA NA M NA NA NA NA
2019/11/11 22:51:00 AWS2 8.89 258 10.39 259 M M M NA NA 980.0 NA NA M NA NA NA NA
2019/11/11 22:52:00 AWS2 8.61 257 10.39 259 M M M NA NA 980.4 NA NA M NA NA NA NA
2019/11/11 22:53:01 AWS2 8.43 258 10.39 259 M M M NA NA 980.3 NA NA M NA NA NA NA
2019/11/11 22:54:01 AWS2 8.60 258 10.39 259 M M M NA NA 980.3 NA NA M NA NA NA NA
2019/11/11 22:55:01 AWS2 8.21 257 10.39 259 M M M NA NA 980.5 NA NA M NA NA NA NA
2019/11/11 22:56:01 AWS2 7.97 257 10.39 259 M M M NA NA 980.7 NA NA M NA NA NA NA
2019/11/11 22:57:01 AWS2 8.14 256 10.39 259 M M M NA NA 980.6 NA NA M NA NA NA NA
2019/11/11 22:58:01 AWS2 8.22 255 10.39 259 M M M NA NA 980.8 NA NA M NA NA NA NA
2019/11/11 22:59:01 AWS2 7.64 253 9.83 254 M M M NA NA 980.6 NA NA M NA NA NA NA
2019/11/11 23:00:01 AWS2 7.61 253 9.83 254 M M M NA NA 980.7 NA NA M NA NA NA NA
2019/11/11 23:01:00 AWS2 7.90 255 9.83 254 M M M NA NA 981.0 NA NA M NA NA NA NA
2019/11/11 23:02:01 AWS2 7.68 256 9.83 254 M M M NA NA 980.0 NA NA M NA NA NA NA
2019/11/11 23:03:01 AWS2 7.91 255 9.83 254 M M M NA NA 980.4 NA NA M NA NA NA NA
2019/11/11 23:04:00 AWS2 8.13 255 9.83 254 M M M NA NA 980.7 NA NA M NA NA NA NA
2019/11/11 23:05:01 AWS2 7.83 255 9.83 254 M M M NA NA 980.7 NA NA M NA NA NA NA
2019/11/11 23:06:01 AWS2 7.96 254 10.24 261 M M M NA NA 979.8 NA NA M NA NA NA NA
2019/11/11 23:07:01 AWS2 8.09 254 10.24 261 M M M NA NA 979.9 NA NA M NA NA NA NA
2019/11/11 23:08:01 AWS2 7.54 254 10.24 261 M M M NA NA 980.0 NA NA M NA NA NA NA
2019/11/11 23:09:01 AWS2 7.28 251 10.24 261 M M M NA NA 980.5 NA NA M NA NA NA NA
2019/11/11 23:10:01 AWS2 6.90 251 10.24 261 M M M NA NA 980.9 NA NA M NA NA NA NA
2019/11/11 23:11:01 AWS2 7.08 254 10.24 261 M M M NA NA 981.0 NA NA M NA NA NA NA
2019/11/11 23:12:01 AWS2 7.63 254 10.24 261 M M M NA NA 980.7 NA NA M NA NA NA NA
2019/11/11 23:13:01 AWS2 7.28 254 10.24 261 M M M NA NA 980.0 NA NA M NA NA NA NA
2019/11/11 23:14:01 AWS2 7.14 255 10.24 261 M M M NA NA 980.4 NA NA M NA NA NA NA
2019/11/11 23:15:01 AWS2 7.55 255 10.24 261 M M M NA NA 980.2 NA NA M NA NA NA NA
2019/11/11 23:16:00 AWS2 7.28 252 9.00 245 M M M NA NA 980.7 NA NA M NA NA NA NA
2019/11/11 23:17:01 AWS2 7.04 253 9.00 245 M M M NA NA 980.5 NA NA M NA NA NA NA
2019/11/11 23:18:01 AWS2 7.42 254 9.00 245 M M M NA NA 980.2 NA NA M NA NA NA NA
2019/11/11 23:19:00 AWS2 8.22 255 9.67 257 M M M NA NA 980.5 NA NA M NA NA NA NA
2019/11/11 23:20:01 AWS2 8.20 256 9.67 257 M M M NA NA 981.3 NA NA M NA NA NA NA
2019/11/11 23:21:01 AWS2 8.10 254 9.67 257 M M M NA NA 980.2 NA NA M NA NA NA NA
2019/11/11 23:22:00 AWS2 8.19 254 9.67 257 M M M NA NA 980.6 NA NA M NA NA NA NA
2019/11/11 23:23:01 AWS2 7.68 256 9.67 257 M M M NA NA 980.7 NA NA M NA NA NA NA
2019/11/11 23:24:00 AWS2 7.50 258 9.67 257 M M M NA NA 981.0 NA NA M NA NA NA NA
2019/11/11 23:25:01 AWS2 7.37 258 9.67 257 M M M NA NA 980.8 NA NA M NA NA NA NA
2019/11/11 23:26:01 AWS2 7.56 257 9.67 257 M M M NA NA 980.8 NA NA M NA NA NA NA
2019/11/11 23:27:01 AWS2 7.65 255 9.67 257 M M M NA NA 981.0 NA NA M NA NA NA NA
2019/11/11 23:28:01 AWS2 7.59 253 9.67 257 M M M NA NA 980.1 NA NA M NA NA NA NA
2019/11/11 23:29:01 AWS2 7.60 254 9.41 255 M M M NA NA 980.7 NA NA M NA NA NA NA
2019/11/11 23:30:00 AWS2 7.47 255 9.41 255 M M M NA NA 980.9 NA NA M NA NA NA NA
2019/11/11 23:31:02 AWS2 7.67 257 9.88 257 M M M NA NA 980.5 NA NA M NA NA NA NA
2019/11/11 23:32:01 AWS2 7.20 253 9.88 257 M M M NA NA 980.0 NA NA M NA NA NA NA
2019/11/11 23:33:01 AWS2 6.59 252 9.88 257 M M M NA NA 979.2 NA NA M NA NA NA NA
2019/11/11 23:34:00 AWS2 6.96 252 9.88 257 M M M NA NA 980.7 NA NA M NA NA NA NA
2019/11/11 23:35:00 AWS2 7.37 252 9.88 257 M M M NA NA 980.7 NA NA M NA NA NA NA
2019/11/11 23:36:01 AWS2 7.60 251 9.88 257 M M M NA NA 980.7 NA NA M NA NA NA NA
2019/11/11 23:37:01 AWS2 7.83 248 9.88 257 M M M NA NA 980.6 NA NA M NA NA NA NA
2019/11/11 23:38:01 AWS2 7.74 249 9.88 257 M M M NA NA 979.9 NA NA M NA NA NA NA
2019/11/11 23:39:01 AWS2 7.42 250 9.88 257 M M M NA NA 979.8 NA NA M NA NA NA NA
2019/11/11 23:40:01 AWS2 7.24 250 9.88 257 M M M NA NA 980.8 NA NA M NA NA NA NA
2019/11/11 23:41:01 AWS2 6.71 249 9.21 242 M M M NA NA 980.8 NA NA M NA NA NA NA
2019/11/11 23:42:01 AWS2 6.16 249 9.21 242 M M M NA NA 979.9 NA NA M NA NA NA NA
2019/11/11 23:43:01 AWS2 6.52 251 9.21 242 M M M NA NA 980.1 NA NA M NA NA NA NA
2019/11/11 23:44:01 AWS2 6.48 251 9.21 242 M M M NA NA 980.0 NA NA M NA NA NA NA
2019/11/11 23:45:01 AWS2 6.58 250 9.21 242 M M M NA NA 980.7 NA NA M NA NA NA NA
2019/11/11 23:46:01 AWS2 7.08 250 9.21 242 M M M NA NA 980.2 NA NA M NA NA NA NA
2019/11/11 23:47:01 AWS2 6.87 251 8.95 253 M M M NA NA 980.1 NA NA M NA NA NA NA
2019/11/11 23:48:01 AWS2 6.75 251 8.95 253 M M M NA NA 981.0 NA NA M NA NA NA NA
2019/11/11 23:49:01 AWS2 6.80 251 8.18 245 M M M NA NA 980.9 NA NA M NA NA NA NA
2019/11/11 23:50:00 AWS2 6.62 250 8.13 247 M M M NA NA 979.6 NA NA M NA NA NA NA
2019/11/11 23:51:00 AWS2 6.74 250 8.13 247 M M M NA NA 979.7 NA NA M NA NA NA NA
2019/11/11 23:52:01 AWS2 6.49 251 8.13 247 M M M NA NA 980.2 NA NA M NA NA NA NA
2019/11/11 23:53:00 AWS2 6.09 252 8.13 247 M M M NA NA 980.3 NA NA M NA NA NA NA
2019/11/11 23:54:00 AWS2 5.95 248 8.13 247 M M M NA NA 980.1 NA NA M NA NA NA NA
2019/11/11 23:55:01 AWS2 5.85 248 8.13 247 M M M NA NA 980.3 NA NA M NA NA NA NA
2019/11/11 23:56:00 AWS2 5.96 249 8.13 247 M M M NA NA 980.1 NA NA M NA NA NA NA
2019/11/11 23:57:01 AWS2 5.85 251 8.13 247 M M M NA NA 981.4 NA NA M NA NA NA NA
2019/11/11 23:58:01 AWS2 6.01 253 8.08 249 M M M NA NA 980.8 NA NA M NA NA NA NA
2019/11/11 23:59:01 AWS2 6.18 253 7.72 244 M M M NA NA 980.9 NA NA M NA NA NA NA